Time,TemperatureF,DewpointF,PressureIn,WindDirection,WindDirectionDegrees,WindSpeedMPH,WindSpeedGustMPH,Humidity,HourlyPrecipIn,Conditions,Clouds,dailyrainin,SoftwareType,DateUTC
2013-10-19 00:01:00,44.3,39.5,29.82,North,352,0.0,1.0,83,0.00,,---,0.00,VWS V14.01,2013-10-19 05:01:00,
2013-10-19 00:03:00,44.3,39.5,29.82,North,352,0.0,0.0,83,0.00,,---,0.00,VWS V14.01,2013-10-19 05:03:00,
2013-10-19 00:04:00,44.3,39.5,29.82,North,352,0.0,0.0,83,0.00,,---,0.00,VWS V14.01,2013-10-19 05:04:00,
2013-10-19 00:05:00,44.3,39.5,29.82,North,352,0.0,0.0,83,0.00,,---,0.00,VWS V14.01,2013-10-19 05:05:00,
2013-10-19 00:06:00,44.3,39.2,29.82,North,352,0.0,0.0,82,0.00,,---,0.00,VWS V14.01,2013-10-19 05:06:00,
2013-10-19 00:08:00,44.5,39.7,29.82,North,352,0.0,1.0,83,0.00,,---,0.00,VWS V14.01,2013-10-19 05:08:00,
2013-10-19 00:09:00,44.5,39.7,29.82,North,352,0.0,0.0,83,0.00,,---,0.00,VWS V14.01,2013-10-19 05:09:00,
2013-10-19 00:10:00,44.5,39.7,29.82,North,352,0.0,0.0,83,0.00,,---,0.00,VWS V14.01,2013-10-19 05:10:00,
2013-10-19 00:11:00,44.5,39.7,29.82,North,352,0.0,0.0,83,0.00,,---,0.00,VWS V14.01,2013-10-19 05:11:00,
2013-10-19 00:12:00,44.5,39.7,29.82,North,352,0.0,0.0,83,0.00,,---,0.00,VWS V14.01,2013-10-19 05:12:00,
2013-10-19 00:14:00,44.5,39.4,29.82,North,352,0.0,0.0,82,0.00,,---,0.00,VWS V14.01,2013-10-19 05:14:00,
2013-10-19 00:16:00,44.5,39.4,29.82,SSW,198,0.0,0.0,82,0.00,,---,0.00,VWS V14.01,2013-10-19 05:16:00,
2013-10-19 00:18:00,44.5,39.4,29.82,SSW,198,0.0,0.0,82,0.00,,---,0.00,VWS V14.01,2013-10-19 05:18:00,
2013-10-19 00:21:00,44.5,39.4,29.82,ESE,120,0.0,0.0,82,0.00,,---,0.00,VWS V14.01,2013-10-19 05:21:00,
2013-10-19 00:22:00,44.5,39.4,29.82,ESE,118,0.0,0.0,82,0.00,,---,0.00,VWS V14.01,2013-10-19 05:22:00,
2013-10-19 00:23:00,44.5,39.4,29.82,ESE,117,0.0,0.0,82,0.00,,---,0.00,VWS V14.01,2013-10-19 05:23:00,
2013-10-19 00:24:00,44.5,39.4,29.82,ESE,118,0.0,0.0,82,0.00,,---,0.00,VWS V14.01,2013-10-19 05:24:00,
2013-10-19 00:27:00,44.5,39.4,29.82,ESE,118,0.0,0.0,82,0.00,,---,0.00,VWS V14.01,2013-10-19 05:27:00,
2013-10-19 00:29:00,44.5,39.4,29.82,ESE,118,0.0,0.0,82,0.00,,---,0.00,VWS V14.01,2013-10-19 05:29:00,
2013-10-19 00:30:00,44.5,39.4,29.82,ESE,118,0.0,0.0,82,0.00,,---,0.00,VWS V14.01,2013-10-19 05:30:00,
2013-10-19 00:32:00,44.5,39.4,29.82,ESE,118,0.0,0.0,82,0.00,,---,0.00,VWS V14.01,2013-10-19 05:32:00,
2013-10-19 00:33:00,44.5,39.4,29.82,SSW,207,0.0,2.0,82,0.00,,---,0.00,VWS V14.01,2013-10-19 05:33:00,
2013-10-19 00:35:00,44.5,39.4,29.82,SSW,207,0.0,0.0,82,0.00,,---,0.00,VWS V14.01,2013-10-19 05:35:00,
2013-10-19 00:36:00,44.5,39.4,29.82,SSW,207,0.0,0.0,82,0.00,,---,0.00,VWS V14.01,2013-10-19 05:36:00,
2013-10-19 00:37:00,44.5,39.4,29.82,SSW,207,0.0,0.0,82,0.00,,---,0.00,VWS V14.01,2013-10-19 05:37:00,
2013-10-19 00:41:00,44.5,39.4,29.82,SW,219,0.0,0.0,82,0.00,,---,0.00,VWS V14.01,2013-10-19 05:41:00,
2013-10-19 00:42:00,44.5,39.4,29.82,SW,219,0.0,0.0,82,0.00,,---,0.00,VWS V14.01,2013-10-19 05:42:00,
2013-10-19 00:43:00,44.5,39.4,29.82,SSW,202,0.0,0.0,82,0.00,,---,0.00,VWS V14.01,2013-10-19 05:43:00,
2013-10-19 00:45:00,44.5,39.4,29.82,SSW,202,0.0,0.0,82,0.00,,---,0.00,VWS V14.01,2013-10-19 05:45:00,
2013-10-19 00:49:00,44.5,39.4,29.82,SSW,202,0.0,0.0,82,0.00,,---,0.00,VWS V14.01,2013-10-19 05:49:00,
2013-10-19 00:50:00,44.5,39.4,29.82,SSW,202,0.0,0.0,82,0.00,,---,0.00,VWS V14.01,2013-10-19 05:50:00,
2013-10-19 00:51:00,44.5,39.4,29.82,SSW,202,0.0,0.0,82,0.00,,---,0.00,VWS V14.01,2013-10-19 05:51:00,
2013-10-19 00:52:00,44.5,39.4,29.82,SSW,202,0.0,0.0,82,0.00,,---,0.00,VWS V14.01,2013-10-19 05:52:00,
2013-10-19 00:55:00,44.5,39.4,29.82,SW,231,0.0,0.0,82,0.00,,---,0.00,VWS V14.01,2013-10-19 05:55:00,
2013-10-19 00:57:00,44.5,39.4,29.82,SW,214,0.0,0.0,82,0.00,,---,0.00,VWS V14.01,2013-10-19 05:57:00,
2013-10-19 01:00:00,44.5,39.4,29.81,SW,214,0.0,0.0,82,0.00,,---,0.00,VWS V14.01,2013-10-19 06:00:00,
2013-10-19 01:02:00,44.5,39.4,29.81,SW,226,0.0,0.0,82,0.00,,---,0.00,VWS V14.01,2013-10-19 06:02:00,
2013-10-19 01:04:00,44.5,39.4,29.81,SW,226,0.0,0.0,82,0.00,,---,0.00,VWS V14.01,2013-10-19 06:04:00,
2013-10-19 01:05:00,44.5,39.4,29.81,SW,226,0.0,0.0,82,0.00,,---,0.00,VWS V14.01,2013-10-19 06:05:00,
2013-10-19 01:06:00,44.5,39.4,29.81,SW,226,0.0,1.0,82,0.00,,---,0.00,VWS V14.01,2013-10-19 06:06:00,
2013-10-19 01:08:00,44.5,39.4,29.81,SW,226,0.0,0.0,82,0.00,,---,0.00,VWS V14.01,2013-10-19 06:08:00,
2013-10-19 01:09:00,44.5,39.4,29.81,SW,226,0.0,0.0,82,0.00,,---,0.00,VWS V14.01,2013-10-19 06:09:00,
2013-10-19 01:10:00,44.5,39.4,29.81,SW,226,0.0,0.0,82,0.00,,---,0.00,VWS V14.01,2013-10-19 06:10:00,
2013-10-19 01:11:00,44.5,39.4,29.81,SW,226,0.0,0.0,82,0.00,,---,0.00,VWS V14.01,2013-10-19 06:11:00,
2013-10-19 01:14:00,44.5,39.4,29.80,SW,226,0.0,0.0,82,0.00,,---,0.00,VWS V14.01,2013-10-19 06:14:00,
2013-10-19 01:16:00,44.5,39.4,29.80,WSW,247,0.0,0.0,82,0.00,,---,0.00,VWS V14.01,2013-10-19 06:16:00,
2013-10-19 01:17:00,44.5,39.4,29.80,WSW,247,0.0,0.0,82,0.00,,---,0.00,VWS V14.01,2013-10-19 06:17:00,
2013-10-19 01:18:00,44.5,39.4,29.80,WSW,247,0.0,0.0,82,0.00,,---,0.00,VWS V14.01,2013-10-19 06:18:00,
2013-10-19 01:19:00,44.5,39.4,29.80,WSW,247,0.0,2.0,82,0.00,,---,0.00,VWS V14.01,2013-10-19 06:19:00,
2013-10-19 01:21:00,44.5,39.4,29.80,WSW,247,0.0,0.0,82,0.00,,---,0.00,VWS V14.01,2013-10-19 06:21:00,
2013-10-19 01:23:00,44.3,39.2,29.80,WSW,247,0.0,0.0,82,0.00,,---,0.00,VWS V14.01,2013-10-19 06:23:00,
2013-10-19 01:26:00,44.3,39.2,29.80,WSW,247,0.0,0.0,82,0.00,,---,0.00,VWS V14.01,2013-10-19 06:26:00,
2013-10-19 01:27:00,44.3,39.2,29.80,WSW,247,0.0,1.0,82,0.00,,---,0.00,VWS V14.01,2013-10-19 06:27:00,
2013-10-19 01:29:00,44.3,39.2,29.80,WSW,247,0.0,0.0,82,0.00,,---,0.00,VWS V14.01,2013-10-19 06:29:00,
2013-10-19 01:32:00,44.3,39.2,29.80,West,273,0.0,0.0,82,0.00,,---,0.00,VWS V14.01,2013-10-19 06:32:00,
2013-10-19 01:34:00,44.3,39.2,29.80,West,273,0.0,0.0,82,0.00,,---,0.00,VWS V14.01,2013-10-19 06:34:00,
2013-10-19 01:35:00,44.3,39.2,29.80,West,273,0.0,0.0,82,0.00,,---,0.00,VWS V14.01,2013-10-19 06:35:00,
2013-10-19 01:37:00,44.3,39.2,29.80,West,273,0.0,0.0,82,0.00,,---,0.00,VWS V14.01,2013-10-19 06:37:00,
2013-10-19 01:38:00,44.3,39.2,29.80,West,273,0.0,0.0,82,0.00,,---,0.00,VWS V14.01,2013-10-19 06:38:00,
2013-10-19 01:39:00,44.3,39.2,29.80,West,273,0.0,0.0,82,0.00,,---,0.00,VWS V14.01,2013-10-19 06:39:00,
2013-10-19 01:40:00,44.3,39.2,29.80,West,273,0.0,0.0,82,0.00,,---,0.00,VWS V14.01,2013-10-19 06:40:00,
2013-10-19 01:42:00,44.3,39.2,29.80,West,273,0.0,0.0,82,0.00,,---,0.00,VWS V14.01,2013-10-19 06:42:00,
2013-10-19 01:43:00,44.3,39.2,29.80,West,273,0.0,0.0,82,0.00,,---,0.00,VWS V14.01,2013-10-19 06:43:00,
2013-10-19 01:45:00,44.3,39.5,29.79,West,273,0.0,0.0,83,0.00,,---,0.00,VWS V14.01,2013-10-19 06:45:00,
2013-10-19 01:46:00,44.3,39.5,29.79,West,273,0.0,0.0,83,0.00,,---,0.00,VWS V14.01,2013-10-19 06:46:00,
2013-10-19 01:48:00,44.3,39.5,29.79,SW,214,0.0,2.0,83,0.00,,---,0.00,VWS V14.01,2013-10-19 06:48:00,
2013-10-19 01:50:00,44.3,39.5,29.79,SW,214,0.0,0.0,83,0.00,,---,0.00,VWS V14.01,2013-10-19 06:50:00,
2013-10-19 01:51:00,44.3,39.5,29.79,SW,214,0.0,1.0,83,0.00,,---,0.00,VWS V14.01,2013-10-19 06:51:00,
2013-10-19 01:53:00,44.3,39.5,29.79,SW,214,0.0,0.0,83,0.00,,---,0.00,VWS V14.01,2013-10-19 06:53:00,
2013-10-19 01:54:00,44.2,39.4,29.79,SW,214,0.0,0.0,83,0.00,,---,0.00,VWS V14.01,2013-10-19 06:54:00,
2013-10-19 01:55:00,44.2,39.4,29.79,SW,214,0.0,0.0,83,0.00,,---,0.00,VWS V14.01,2013-10-19 06:55:00,
2013-10-19 01:56:00,44.2,39.4,29.79,SW,214,0.0,0.0,83,0.00,,---,0.00,VWS V14.01,2013-10-19 06:56:00,
2013-10-19 01:59:00,44.2,39.4,29.78,SW,214,0.0,0.0,83,0.00,,---,0.00,VWS V14.01,2013-10-19 06:59:00,
2013-10-19 02:00:00,44.2,39.4,29.78,SW,214,0.0,0.0,83,0.00,,---,0.00,VWS V14.01,2013-10-19 07:00:00,
2013-10-19 02:01:00,44.2,39.4,29.78,SW,214,0.0,0.0,83,0.00,,---,0.00,VWS V14.01,2013-10-19 07:01:00,
2013-10-19 02:02:00,44.2,39.4,29.78,SW,214,0.0,0.0,83,0.00,,---,0.00,VWS V14.01,2013-10-19 07:02:00,
2013-10-19 02:04:00,44.2,39.4,29.78,SW,214,0.0,0.0,83,0.00,,---,0.00,VWS V14.01,2013-10-19 07:04:00,
2013-10-19 02:05:00,44.2,39.4,29.78,SW,214,0.0,0.0,83,0.00,,---,0.00,VWS V14.01,2013-10-19 07:05:00,
2013-10-19 02:07:00,44.2,39.4,29.78,SW,235,1.0,1.0,83,0.00,,---,0.00,VWS V14.01,2013-10-19 07:07:00,
2013-10-19 02:08:00,44.2,39.4,29.78,SW,234,0.0,1.0,83,0.00,,---,0.00,VWS V14.01,2013-10-19 07:08:00,
2013-10-19 02:10:00,44.2,39.4,29.78,SW,234,0.0,0.0,83,0.00,,---,0.00,VWS V14.01,2013-10-19 07:10:00,
2013-10-19 02:11:00,44.2,39.4,29.78,SW,234,0.0,0.0,83,0.00,,---,0.00,VWS V14.01,2013-10-19 07:11:00,
2013-10-19 02:12:00,44.2,39.4,29.78,SW,234,0.0,0.0,83,0.00,,---,0.00,VWS V14.01,2013-10-19 07:12:00,
2013-10-19 02:13:00,44.2,39.4,29.78,SW,234,0.0,0.0,83,0.00,,---,0.00,VWS V14.01,2013-10-19 07:13:00,
2013-10-19 02:15:00,44.2,39.4,29.78,SW,234,0.0,0.0,83,0.00,,---,0.00,VWS V14.01,2013-10-19 07:15:00,
2013-10-19 02:16:00,44.1,39.3,29.78,SW,234,0.0,2.0,83,0.00,,---,0.00,VWS V14.01,2013-10-19 07:16:00,
2013-10-19 02:17:00,44.1,39.3,29.78,SW,234,0.0,0.0,83,0.00,,---,0.00,VWS V14.01,2013-10-19 07:17:00,
2013-10-19 02:20:00,44.1,39.3,29.78,SW,234,0.0,0.0,83,0.00,,---,0.00,VWS V14.01,2013-10-19 07:20:00,
2013-10-19 02:21:00,44.1,39.3,29.78,SW,234,0.0,0.0,83,0.00,,---,0.00,VWS V14.01,2013-10-19 07:21:00,
2013-10-19 02:23:00,44.1,39.3,29.78,SW,216,0.0,1.0,83,0.00,,---,0.00,VWS V14.01,2013-10-19 07:23:00,
2013-10-19 02:24:00,44.1,39.3,29.78,SW,216,0.0,0.0,83,0.00,,---,0.00,VWS V14.01,2013-10-19 07:24:00,
2013-10-19 02:26:00,44.1,39.3,29.78,SW,216,0.0,0.0,83,0.00,,---,0.00,VWS V14.01,2013-10-19 07:26:00,
2013-10-19 02:27:00,44.1,39.3,29.78,SW,228,0.0,2.0,83,0.00,,---,0.00,VWS V14.01,2013-10-19 07:27:00,
2013-10-19 02:29:00,44.1,39.3,29.78,SW,228,0.0,0.0,83,0.00,,---,0.00,VWS V14.01,2013-10-19 07:29:00,
2013-10-19 02:30:00,44.1,39.3,29.78,SW,228,0.0,0.0,83,0.00,,---,0.00,VWS V14.01,2013-10-19 07:30:00,
2013-10-19 02:32:00,44.1,39.3,29.78,SW,228,0.0,0.0,83,0.00,,---,0.00,VWS V14.01,2013-10-19 07:32:00,
2013-10-19 02:35:00,44.1,39.3,29.78,SW,228,0.0,0.0,83,0.00,,---,0.00,VWS V14.01,2013-10-19 07:35:00,
2013-10-19 02:39:00,44.1,39.3,29.78,SW,228,0.0,0.0,83,0.00,,---,0.00,VWS V14.01,2013-10-19 07:39:00,
2013-10-19 02:40:00,44.1,39.3,29.78,SW,228,0.0,0.0,83,0.00,,---,0.00,VWS V14.01,2013-10-19 07:40:00,
2013-10-19 02:42:00,44.1,39.3,29.78,SW,228,0.0,0.0,83,0.00,,---,0.00,VWS V14.01,2013-10-19 07:42:00,
2013-10-19 02:45:00,43.9,39.4,29.77,SW,228,0.0,0.0,84,0.00,,---,0.00,VWS V14.01,2013-10-19 07:45:00,
2013-10-19 02:46:00,43.9,39.4,29.77,SW,228,0.0,0.0,84,0.00,,---,0.00,VWS V14.01,2013-10-19 07:46:00,
2013-10-19 02:47:00,43.9,39.4,29.77,SW,228,0.0,0.0,84,0.00,,---,0.00,VWS V14.01,2013-10-19 07:47:00,
2013-10-19 02:49:00,43.9,39.4,29.77,SW,228,0.0,0.0,84,0.00,,---,0.00,VWS V14.01,2013-10-19 07:49:00,
2013-10-19 02:50:00,43.9,39.4,29.77,SW,228,0.0,0.0,84,0.00,,---,0.00,VWS V14.01,2013-10-19 07:50:00,
2013-10-19 02:51:00,43.9,39.4,29.77,SW,228,0.0,0.0,84,0.00,,---,0.00,VWS V14.01,2013-10-19 07:51:00,
2013-10-19 02:52:00,43.9,39.4,29.77,SW,228,0.0,0.0,84,0.00,,---,0.00,VWS V14.01,2013-10-19 07:52:00,
2013-10-19 02:54:00,43.8,39.3,29.77,SW,228,0.0,0.0,84,0.00,,---,0.00,VWS V14.01,2013-10-19 07:54:00,
2013-10-19 02:56:00,43.8,39.3,29.77,SW,228,0.0,0.0,84,0.00,,---,0.00,VWS V14.01,2013-10-19 07:56:00,
2013-10-19 02:57:00,43.8,39.3,29.77,SW,228,0.0,0.0,84,0.00,,---,0.00,VWS V14.01,2013-10-19 07:57:00,
2013-10-19 02:58:00,43.8,39.3,29.77,SW,228,0.0,1.0,84,0.00,,---,0.00,VWS V14.01,2013-10-19 07:58:00,
2013-10-19 03:00:00,43.8,39.3,29.77,SW,228,0.0,0.0,84,0.00,,---,0.00,VWS V14.01,2013-10-19 08:00:00,
2013-10-19 03:03:00,43.8,39.6,29.77,SW,228,0.0,0.0,85,0.00,,---,0.00,VWS V14.01,2013-10-19 08:03:00,
2013-10-19 03:04:00,43.8,39.6,29.77,SW,228,0.0,0.0,85,0.00,,---,0.00,VWS V14.01,2013-10-19 08:04:00,
2013-10-19 03:05:00,43.8,39.6,29.77,SW,228,0.0,0.0,85,0.00,,---,0.00,VWS V14.01,2013-10-19 08:05:00,
2013-10-19 03:06:00,43.6,39.4,29.77,SW,228,0.0,0.0,85,0.00,,---,0.00,VWS V14.01,2013-10-19 08:06:00,
2013-10-19 03:09:00,43.6,39.4,29.77,SW,228,0.0,0.0,85,0.00,,---,0.00,VWS V14.01,2013-10-19 08:09:00,
2013-10-19 03:10:00,43.6,39.4,29.77,SW,228,0.0,0.0,85,0.00,,---,0.00,VWS V14.01,2013-10-19 08:10:00,
2013-10-19 03:11:00,43.6,39.4,29.77,SW,228,0.0,0.0,85,0.00,,---,0.00,VWS V14.01,2013-10-19 08:11:00,
2013-10-19 03:12:00,43.6,39.4,29.77,SW,228,0.0,0.0,85,0.00,,---,0.00,VWS V14.01,2013-10-19 08:12:00,
2013-10-19 03:13:00,43.6,39.4,29.77,SW,228,0.0,0.0,85,0.00,,---,0.00,VWS V14.01,2013-10-19 08:13:00,
2013-10-19 03:14:00,43.6,39.4,29.76,SW,228,0.0,0.0,85,0.00,,---,0.00,VWS V14.01,2013-10-19 08:14:00,
2013-10-19 03:17:00,43.6,39.4,29.76,SW,228,0.0,0.0,85,0.00,,---,0.00,VWS V14.01,2013-10-19 08:17:00,
2013-10-19 03:18:00,43.6,39.4,29.76,SW,228,0.0,0.0,85,0.00,,---,0.00,VWS V14.01,2013-10-19 08:18:00,
2013-10-19 03:19:00,43.6,39.4,29.76,SW,228,0.0,0.0,85,0.00,,---,0.00,VWS V14.01,2013-10-19 08:19:00,
2013-10-19 03:21:00,43.6,39.4,29.76,SW,228,0.0,1.0,85,0.00,,---,0.00,VWS V14.01,2013-10-19 08:21:00,
2013-10-19 03:22:00,43.6,39.4,29.76,SW,228,0.0,0.0,85,0.00,,---,0.00,VWS V14.01,2013-10-19 08:22:00,
2013-10-19 03:24:00,43.6,39.4,29.76,SW,228,0.0,0.0,85,0.00,,---,0.00,VWS V14.01,2013-10-19 08:24:00,
2013-10-19 03:25:00,43.6,39.4,29.76,SW,228,0.0,0.0,85,0.00,,---,0.00,VWS V14.01,2013-10-19 08:25:00,
2013-10-19 03:27:00,43.6,39.4,29.76,SW,228,0.0,0.0,85,0.00,,---,0.00,VWS V14.01,2013-10-19 08:27:00,
2013-10-19 03:28:00,43.6,39.4,29.76,SW,228,0.0,0.0,85,0.00,,---,0.00,VWS V14.01,2013-10-19 08:28:00,
2013-10-19 03:30:00,43.6,39.4,29.76,WSW,249,0.0,2.0,85,0.00,,---,0.00,VWS V14.01,2013-10-19 08:30:00,
2013-10-19 03:31:00,43.6,39.4,29.76,WSW,249,0.0,3.0,85,0.00,,---,0.00,VWS V14.01,2013-10-19 08:31:00,
2013-10-19 03:33:00,43.6,39.4,29.76,WSW,248,0.0,2.0,85,0.00,,---,0.00,VWS V14.01,2013-10-19 08:33:00,
2013-10-19 03:34:00,43.6,39.4,29.76,WSW,248,0.0,0.0,85,0.00,,---,0.00,VWS V14.01,2013-10-19 08:34:00,
2013-10-19 03:36:00,43.6,39.4,29.76,WSW,248,0.0,0.0,85,0.00,,---,0.00,VWS V14.01,2013-10-19 08:36:00,
2013-10-19 03:37:00,43.6,39.4,29.76,WSW,248,0.0,0.0,85,0.00,,---,0.00,VWS V14.01,2013-10-19 08:37:00,
2013-10-19 03:39:00,43.6,39.4,29.76,WSW,248,0.0,0.0,85,0.00,,---,0.00,VWS V14.01,2013-10-19 08:39:00,
2013-10-19 03:41:00,43.6,39.4,29.76,WSW,248,0.0,1.0,85,0.00,,---,0.00,VWS V14.01,2013-10-19 08:41:00,
2013-10-19 03:42:00,43.6,39.4,29.76,WSW,248,0.0,0.0,85,0.00,,---,0.00,VWS V14.01,2013-10-19 08:42:00,
2013-10-19 03:43:00,43.6,39.4,29.76,WSW,248,0.0,0.0,85,0.00,,---,0.00,VWS V14.01,2013-10-19 08:43:00,
2013-10-19 03:44:00,43.6,39.4,29.76,WSW,248,0.0,0.0,85,0.00,,---,0.00,VWS V14.01,2013-10-19 08:44:00,
2013-10-19 03:45:00,43.6,39.4,29.76,WSW,248,0.0,0.0,85,0.00,,---,0.00,VWS V14.01,2013-10-19 08:45:00,
2013-10-19 03:46:00,43.6,39.4,29.76,WSW,248,0.0,0.0,85,0.00,,---,0.00,VWS V14.01,2013-10-19 08:46:00,
2013-10-19 03:47:00,43.6,39.7,29.76,WSW,248,0.0,0.0,86,0.00,,---,0.00,VWS V14.01,2013-10-19 08:47:00,
2013-10-19 03:48:00,43.6,39.7,29.76,WSW,248,0.0,0.0,86,0.00,,---,0.00,VWS V14.01,2013-10-19 08:48:00,
2013-10-19 03:49:00,43.6,39.7,29.76,WSW,248,1.0,1.0,86,0.00,,---,0.00,VWS V14.01,2013-10-19 08:49:00,
2013-10-19 03:52:00,43.6,39.7,29.76,WSW,248,0.0,0.0,86,0.00,,---,0.00,VWS V14.01,2013-10-19 08:52:00,
2013-10-19 03:54:00,43.6,39.7,29.76,WSW,248,0.0,0.0,86,0.00,,---,0.00,VWS V14.01,2013-10-19 08:54:00,
2013-10-19 03:56:00,43.6,39.7,29.76,WSW,248,0.0,0.0,86,0.00,,---,0.00,VWS V14.01,2013-10-19 08:56:00,
2013-10-19 03:57:00,43.6,39.7,29.76,WSW,248,1.0,1.0,86,0.00,,---,0.00,VWS V14.01,2013-10-19 08:57:00,
2013-10-19 03:58:00,43.6,39.7,29.76,WSW,248,0.0,0.0,86,0.00,,---,0.00,VWS V14.01,2013-10-19 08:58:00,
2013-10-19 03:59:00,43.6,39.7,29.75,SW,236,3.0,3.0,86,0.00,,---,0.00,VWS V14.01,2013-10-19 08:59:00,
2013-10-19 04:00:00,43.6,39.7,29.75,WSW,240,1.0,3.0,86,0.00,,---,0.00,VWS V14.01,2013-10-19 09:00:00,
2013-10-19 04:03:00,43.6,39.7,29.75,WSW,240,0.0,0.0,86,0.00,,---,0.00,VWS V14.01,2013-10-19 09:03:00,
2013-10-19 04:04:00,43.6,39.7,29.75,WSW,240,0.0,0.0,86,0.00,,---,0.00,VWS V14.01,2013-10-19 09:04:00,
2013-10-19 04:06:00,43.6,39.7,29.75,WSW,240,0.0,0.0,86,0.00,,---,0.00,VWS V14.01,2013-10-19 09:06:00,
2013-10-19 04:10:00,43.6,39.7,29.75,WSW,240,0.0,0.0,86,0.00,,---,0.00,VWS V14.01,2013-10-19 09:10:00,
2013-10-19 04:11:00,43.5,39.6,29.75,WSW,240,0.0,0.0,86,0.00,,---,0.00,VWS V14.01,2013-10-19 09:11:00,
2013-10-19 04:12:00,43.5,39.6,29.75,WSW,240,0.0,0.0,86,0.00,,---,0.00,VWS V14.01,2013-10-19 09:12:00,
2013-10-19 04:15:00,43.5,39.9,29.76,WSW,250,0.0,0.0,87,0.00,,---,0.00,VWS V14.01,2013-10-19 09:15:00,
2013-10-19 04:16:00,43.5,39.9,29.76,WSW,250,0.0,0.0,87,0.00,,---,0.00,VWS V14.01,2013-10-19 09:16:00,
2013-10-19 04:17:00,43.5,39.9,29.76,WSW,250,0.0,0.0,87,0.00,,---,0.00,VWS V14.01,2013-10-19 09:17:00,
2013-10-19 04:19:00,43.5,39.9,29.76,WSW,250,0.0,0.0,87,0.00,,---,0.00,VWS V14.01,2013-10-19 09:19:00,
2013-10-19 04:20:00,43.5,39.9,29.76,WSW,250,0.0,0.0,87,0.00,,---,0.00,VWS V14.01,2013-10-19 09:20:00,
2013-10-19 04:21:00,43.5,39.9,29.76,WSW,250,0.0,1.0,87,0.00,,---,0.00,VWS V14.01,2013-10-19 09:21:00,
2013-10-19 04:24:00,43.5,40.2,29.76,WSW,250,0.0,0.0,88,0.00,,---,0.00,VWS V14.01,2013-10-19 09:24:00,
2013-10-19 04:25:00,43.5,40.2,29.76,WSW,248,0.0,1.0,88,0.00,,---,0.00,VWS V14.01,2013-10-19 09:25:00,
2013-10-19 04:27:00,43.3,40.0,29.76,WSW,248,0.0,0.0,88,0.00,,---,0.00,VWS V14.01,2013-10-19 09:27:00,
2013-10-19 04:30:00,43.3,40.0,29.75,WSW,248,0.0,0.0,88,0.00,,---,0.00,VWS V14.01,2013-10-19 09:30:00,
2013-10-19 04:31:00,43.3,40.0,29.75,WSW,248,0.0,1.0,88,0.00,,---,0.00,VWS V14.01,2013-10-19 09:31:00,
2013-10-19 04:32:00,43.3,40.0,29.75,WSW,248,0.0,0.0,88,0.00,,---,0.00,VWS V14.01,2013-10-19 09:32:00,
2013-10-19 04:33:00,43.3,40.0,29.75,WSW,248,0.0,1.0,88,0.00,,---,0.00,VWS V14.01,2013-10-19 09:33:00,
2013-10-19 04:37:00,43.3,40.3,29.75,WSW,248,0.0,0.0,89,0.00,,---,0.00,VWS V14.01,2013-10-19 09:37:00,
2013-10-19 04:39:00,43.2,40.2,29.75,WSW,248,0.0,0.0,89,0.00,,---,0.00,VWS V14.01,2013-10-19 09:39:00,
2013-10-19 04:42:00,43.2,40.2,29.75,SW,233,0.0,0.0,89,0.00,,---,0.00,VWS V14.01,2013-10-19 09:42:00,
2013-10-19 04:44:00,43.2,40.2,29.75,SW,231,0.0,1.0,89,0.00,,---,0.00,VWS V14.01,2013-10-19 09:44:00,
2013-10-19 04:45:00,43.2,40.2,29.75,SW,231,0.0,0.0,89,0.00,,---,0.00,VWS V14.01,2013-10-19 09:45:00,
2013-10-19 04:49:00,43.1,40.1,29.75,SW,231,0.0,0.0,89,0.00,,---,0.00,VWS V14.01,2013-10-19 09:49:00,
2013-10-19 04:50:00,43.1,40.1,29.75,SW,231,1.0,1.0,89,0.00,,---,0.00,VWS V14.01,2013-10-19 09:50:00,
2013-10-19 04:51:00,43.1,40.1,29.75,SW,231,0.0,1.0,89,0.00,,---,0.00,VWS V14.01,2013-10-19 09:51:00,
2013-10-19 04:54:00,43.1,40.4,29.75,SW,221,0.0,1.0,90,0.00,,---,0.00,VWS V14.01,2013-10-19 09:54:00,
2013-10-19 04:55:00,43.1,40.4,29.75,SW,221,0.0,0.0,90,0.00,,---,0.00,VWS V14.01,2013-10-19 09:55:00,
2013-10-19 04:56:00,43.1,40.4,29.75,SW,221,0.0,0.0,90,0.00,,---,0.00,VWS V14.01,2013-10-19 09:56:00,
2013-10-19 05:00:00,43.1,40.4,29.75,SW,221,0.0,0.0,90,0.00,,---,0.00,VWS V14.01,2013-10-19 10:00:00,
2013-10-19 05:01:00,43.1,40.4,29.75,SW,221,0.0,0.0,90,0.00,,---,0.00,VWS V14.01,2013-10-19 10:01:00,
2013-10-19 05:02:00,43.1,40.4,29.75,SW,221,0.0,0.0,90,0.00,,---,0.00,VWS V14.01,2013-10-19 10:02:00,
2013-10-19 05:04:00,42.9,40.5,29.75,SW,221,0.0,0.0,91,0.01,,---,0.01,VWS V14.01,2013-10-19 10:04:00,
2013-10-19 05:07:00,42.9,40.5,29.75,SW,221,0.0,0.0,91,0.01,,---,0.01,VWS V14.01,2013-10-19 10:07:00,
2013-10-19 05:10:00,42.9,40.5,29.75,SW,221,0.0,0.0,91,0.01,,---,0.01,VWS V14.01,2013-10-19 10:10:00,
2013-10-19 05:12:00,42.9,40.5,29.75,SW,221,0.0,0.0,91,0.01,,---,0.01,VWS V14.01,2013-10-19 10:12:00,
2013-10-19 05:13:00,42.9,40.5,29.75,SW,221,0.0,0.0,91,0.01,,---,0.01,VWS V14.01,2013-10-19 10:13:00,
2013-10-19 05:14:00,42.9,40.5,29.75,SW,221,0.0,0.0,91,0.01,,---,0.01,VWS V14.01,2013-10-19 10:14:00,
2013-10-19 05:15:00,42.9,40.5,29.75,SW,221,0.0,0.0,91,0.01,,---,0.01,VWS V14.01,2013-10-19 10:15:00,
2013-10-19 05:17:00,42.9,40.7,29.75,SW,221,0.0,1.0,92,0.01,,---,0.01,VWS V14.01,2013-10-19 10:17:00,
2013-10-19 05:19:00,42.9,40.7,29.75,SW,221,0.0,0.0,92,0.01,,---,0.01,VWS V14.01,2013-10-19 10:19:00,
2013-10-19 05:20:00,42.9,40.7,29.75,WSW,240,0.0,3.0,92,0.01,,---,0.01,VWS V14.01,2013-10-19 10:20:00,
2013-10-19 05:21:00,42.8,40.6,29.75,SW,236,0.0,1.0,92,0.01,,---,0.01,VWS V14.01,2013-10-19 10:21:00,
2013-10-19 05:23:00,42.8,40.6,29.75,WSW,245,3.0,3.0,92,0.01,,---,0.01,VWS V14.01,2013-10-19 10:23:00,
2013-10-19 05:27:00,42.8,40.6,29.75,SW,215,0.0,0.0,92,0.01,,---,0.01,VWS V14.01,2013-10-19 10:27:00,
2013-10-19 05:28:00,42.8,40.6,29.75,SW,232,1.0,2.0,92,0.01,,---,0.01,VWS V14.01,2013-10-19 10:28:00,
2013-10-19 05:29:00,42.8,40.6,29.75,SW,232,0.0,0.0,92,0.01,,---,0.01,VWS V14.01,2013-10-19 10:29:00,
2013-10-19 05:30:00,42.6,40.4,29.75,SW,232,0.0,0.0,92,0.01,,---,0.01,VWS V14.01,2013-10-19 10:30:00,
2013-10-19 05:33:00,42.6,40.4,29.75,SW,221,0.0,0.0,92,0.01,,---,0.01,VWS V14.01,2013-10-19 10:33:00,
2013-10-19 05:34:00,42.6,40.4,29.75,SW,221,0.0,0.0,92,0.01,,---,0.01,VWS V14.01,2013-10-19 10:34:00,
2013-10-19 05:37:00,42.6,40.7,29.75,SW,221,0.0,0.0,93,0.01,,---,0.01,VWS V14.01,2013-10-19 10:37:00,
2013-10-19 05:38:00,42.6,40.7,29.75,SW,221,0.0,0.0,93,0.01,,---,0.01,VWS V14.01,2013-10-19 10:38:00,
2013-10-19 05:39:00,42.6,40.7,29.75,SW,232,0.0,1.0,93,0.01,,---,0.01,VWS V14.01,2013-10-19 10:39:00,
2013-10-19 05:42:00,42.5,40.6,29.75,SW,233,0.0,0.0,93,0.01,,---,0.01,VWS V14.01,2013-10-19 10:42:00,
2013-10-19 05:43:00,42.5,40.6,29.75,SW,233,0.0,1.0,93,0.01,,---,0.01,VWS V14.01,2013-10-19 10:43:00,
2013-10-19 05:44:00,42.5,40.6,29.75,SW,233,0.0,1.0,93,0.01,,---,0.01,VWS V14.01,2013-10-19 10:44:00,
2013-10-19 05:48:00,42.5,40.6,29.75,SW,233,0.0,0.0,93,0.01,,---,0.01,VWS V14.01,2013-10-19 10:48:00,
2013-10-19 05:49:00,42.5,40.6,29.75,SW,233,0.0,0.0,93,0.01,,---,0.01,VWS V14.01,2013-10-19 10:49:00,
2013-10-19 05:50:00,42.5,40.6,29.75,SW,233,0.0,0.0,93,0.01,,---,0.01,VWS V14.01,2013-10-19 10:50:00,
2013-10-19 05:53:00,42.3,40.7,29.75,WSW,253,2.0,2.0,94,0.01,,---,0.01,VWS V14.01,2013-10-19 10:53:00,
2013-10-19 05:54:00,42.3,40.7,29.75,WSW,253,0.0,2.0,94,0.01,,---,0.01,VWS V14.01,2013-10-19 10:54:00,
2013-10-19 05:55:00,42.3,40.7,29.75,West,271,0.0,1.0,94,0.01,,---,0.01,VWS V14.01,2013-10-19 10:55:00,
2013-10-19 05:56:00,42.3,40.7,29.75,West,271,0.0,1.0,94,0.01,,---,0.01,VWS V14.01,2013-10-19 10:56:00,
2013-10-19 05:58:00,42.3,40.7,29.75,WNW,290,1.0,2.0,94,0.01,,---,0.01,VWS V14.01,2013-10-19 10:58:00,
2013-10-19 05:59:00,42.3,40.7,29.75,WSW,246,0.0,2.0,94,0.01,,---,0.01,VWS V14.01,2013-10-19 10:59:00,
2013-10-19 06:00:00,42.3,40.7,29.75,WSW,246,0.0,0.0,94,0.02,,---,0.02,VWS V14.01,2013-10-19 11:00:00,
2013-10-19 06:01:00,42.3,40.7,29.75,WSW,244,0.0,0.0,94,0.02,,---,0.02,VWS V14.01,2013-10-19 11:01:00,
2013-10-19 06:02:00,42.3,40.7,29.75,WSW,247,0.0,2.0,94,0.02,,---,0.02,VWS V14.01,2013-10-19 11:02:00,
2013-10-19 06:03:00,42.3,40.7,29.75,WSW,247,0.0,0.0,94,0.02,,---,0.02,VWS V14.01,2013-10-19 11:03:00,
2013-10-19 06:05:00,42.3,40.7,29.75,WSW,247,0.0,0.0,94,0.01,,---,0.02,VWS V14.01,2013-10-19 11:05:00,
2013-10-19 06:07:00,42.3,40.7,29.75,WSW,247,0.0,0.0,94,0.01,,---,0.02,VWS V14.01,2013-10-19 11:07:00,
2013-10-19 06:09:00,42.2,40.6,29.75,SW,231,0.0,0.0,94,0.01,,---,0.02,VWS V14.01,2013-10-19 11:09:00,
2013-10-19 06:10:00,42.2,40.6,29.75,SW,231,0.0,0.0,94,0.01,,---,0.02,VWS V14.01,2013-10-19 11:10:00,
2013-10-19 06:12:00,42.2,40.6,29.75,SW,215,0.0,1.0,94,0.01,,---,0.02,VWS V14.01,2013-10-19 11:12:00,
2013-10-19 06:13:00,42.2,40.6,29.75,ESE,117,0.0,1.0,94,0.01,,---,0.02,VWS V14.01,2013-10-19 11:13:00,
2013-10-19 06:15:00,42.2,40.9,29.75,SW,233,0.0,1.0,95,0.01,,---,0.02,VWS V14.01,2013-10-19 11:15:00,
2013-10-19 06:16:00,42.2,40.9,29.75,SW,233,0.0,0.0,95,0.01,,---,0.02,VWS V14.01,2013-10-19 11:16:00,
2013-10-19 06:17:00,42.2,40.9,29.75,SW,226,1.0,2.0,95,0.01,,---,0.02,VWS V14.01,2013-10-19 11:17:00,
2013-10-19 06:19:00,42.2,40.9,29.75,SSW,205,0.0,1.0,95,0.01,,---,0.02,VWS V14.01,2013-10-19 11:19:00,
2013-10-19 06:21:00,42.2,40.9,29.75,SW,233,0.0,0.0,95,0.01,,---,0.02,VWS V14.01,2013-10-19 11:21:00,
2013-10-19 06:23:00,42.2,40.9,29.75,SW,233,0.0,1.0,95,0.01,,---,0.02,VWS V14.01,2013-10-19 11:23:00,
2013-10-19 06:24:00,42.2,40.9,29.75,SW,217,0.0,1.0,95,0.01,,---,0.02,VWS V14.01,2013-10-19 11:24:00,
2013-10-19 06:26:00,42.2,40.9,29.75,WSW,239,1.0,1.0,95,0.01,,---,0.02,VWS V14.01,2013-10-19 11:26:00,
2013-10-19 06:27:00,42.2,40.9,29.75,WSW,239,1.0,1.0,95,0.01,,---,0.02,VWS V14.01,2013-10-19 11:27:00,
2013-10-19 06:29:00,42.2,40.9,29.75,SW,230,0.0,0.0,95,0.01,,---,0.02,VWS V14.01,2013-10-19 11:29:00,
2013-10-19 06:30:00,42.1,40.8,29.75,SW,230,0.0,0.0,95,0.01,,---,0.02,VWS V14.01,2013-10-19 11:30:00,
2013-10-19 06:32:00,42.1,40.8,29.75,SW,231,0.0,1.0,95,0.01,,---,0.02,VWS V14.01,2013-10-19 11:32:00,
2013-10-19 06:35:00,42.1,40.8,29.75,South,188,0.0,0.0,95,0.01,,---,0.02,VWS V14.01,2013-10-19 11:35:00,
2013-10-19 06:37:00,42.1,40.8,29.75,South,188,2.0,2.0,95,0.01,,---,0.02,VWS V14.01,2013-10-19 11:37:00,
2013-10-19 06:40:00,42.1,40.8,29.75,SW,231,2.0,2.0,95,0.01,,---,0.02,VWS V14.01,2013-10-19 11:40:00,
2013-10-19 06:41:00,42.1,40.8,29.75,WSW,252,0.0,1.0,95,0.01,,---,0.02,VWS V14.01,2013-10-19 11:41:00,
2013-10-19 06:45:00,41.9,40.8,29.76,WSW,255,0.0,0.0,96,0.01,,---,0.02,VWS V14.01,2013-10-19 11:45:00,
2013-10-19 06:46:00,41.9,40.8,29.76,WSW,255,0.0,0.0,96,0.01,,---,0.02,VWS V14.01,2013-10-19 11:46:00,
2013-10-19 06:48:00,41.9,40.8,29.76,WSW,255,1.0,1.0,96,0.01,,---,0.02,VWS V14.01,2013-10-19 11:48:00,
2013-10-19 06:50:00,41.9,40.8,29.76,SSE,154,0.0,1.0,96,0.01,,---,0.02,VWS V14.01,2013-10-19 11:50:00,
2013-10-19 06:51:00,41.9,40.8,29.76,SSE,154,0.0,0.0,96,0.01,,---,0.02,VWS V14.01,2013-10-19 11:51:00,
2013-10-19 06:53:00,41.9,40.8,29.76,South,186,0.0,1.0,96,0.01,,---,0.02,VWS V14.01,2013-10-19 11:53:00,
2013-10-19 06:54:00,41.9,40.8,29.76,South,186,0.0,0.0,96,0.01,,---,0.02,VWS V14.01,2013-10-19 11:54:00,
2013-10-19 06:56:00,41.9,40.8,29.76,WSW,250,2.0,2.0,96,0.01,,---,0.02,VWS V14.01,2013-10-19 11:56:00,
2013-10-19 06:57:00,41.9,40.8,29.76,SE,146,0.0,2.0,96,0.01,,---,0.02,VWS V14.01,2013-10-19 11:57:00,
2013-10-19 06:58:00,41.9,40.8,29.76,WSW,243,1.0,2.0,96,0.01,,---,0.02,VWS V14.01,2013-10-19 11:58:00,
2013-10-19 06:59:00,41.9,40.8,29.75,West,266,0.0,2.0,96,0.01,,---,0.02,VWS V14.01,2013-10-19 11:59:00,
2013-10-19 07:00:00,41.9,40.8,29.75,West,266,0.0,0.0,96,0.01,,---,0.02,VWS V14.01,2013-10-19 12:00:00,
2013-10-19 07:03:00,41.8,40.8,29.75,ENE,68,0.0,0.0,96,0.00,,---,0.02,VWS V14.01,2013-10-19 12:03:00,
2013-10-19 07:04:00,41.8,40.8,29.75,SSW,207,2.0,2.0,96,0.00,,---,0.02,VWS V14.01,2013-10-19 12:04:00,
2013-10-19 07:05:00,41.8,40.8,29.75,SSW,207,0.0,2.0,96,0.00,,---,0.02,VWS V14.01,2013-10-19 12:05:00,
2013-10-19 07:06:00,41.8,40.8,29.75,SSW,207,0.0,0.0,96,0.00,,---,0.02,VWS V14.01,2013-10-19 12:06:00,
2013-10-19 07:08:00,41.8,40.8,29.75,WSW,238,0.0,2.0,96,0.00,,---,0.02,VWS V14.01,2013-10-19 12:08:00,
2013-10-19 07:09:00,41.8,40.8,29.75,WSW,238,0.0,1.0,96,0.00,,---,0.02,VWS V14.01,2013-10-19 12:09:00,
2013-10-19 07:10:00,41.8,40.8,29.75,WSW,238,0.0,0.0,96,0.00,,---,0.02,VWS V14.01,2013-10-19 12:10:00,
2013-10-19 07:11:00,41.8,40.8,29.75,WSW,239,0.0,0.0,96,0.00,,---,0.02,VWS V14.01,2013-10-19 12:11:00,
2013-10-19 07:12:00,41.8,40.8,29.75,WSW,239,0.0,0.0,96,0.00,,---,0.02,VWS V14.01,2013-10-19 12:12:00,
2013-10-19 07:15:00,41.8,40.8,29.75,WSW,239,0.0,1.0,96,0.00,,---,0.02,VWS V14.01,2013-10-19 12:15:00,
2013-10-19 07:16:00,41.8,40.8,29.75,WSW,239,0.0,0.0,96,0.00,,---,0.02,VWS V14.01,2013-10-19 12:16:00,
2013-10-19 07:18:00,41.6,40.5,29.75,WSW,239,0.0,0.0,96,0.00,,---,0.02,VWS V14.01,2013-10-19 12:18:00,
2013-10-19 07:21:00,41.6,40.5,29.75,SW,224,0.0,4.0,96,0.00,,---,0.02,VWS V14.01,2013-10-19 12:21:00,
2013-10-19 07:22:00,41.6,40.5,29.75,SW,222,1.0,2.0,96,0.00,,---,0.02,VWS V14.01,2013-10-19 12:22:00,
2013-10-19 07:23:00,41.6,40.5,29.75,WSW,239,2.0,2.0,96,0.00,,---,0.02,VWS V14.01,2013-10-19 12:23:00,
2013-10-19 07:24:00,41.6,40.5,29.75,WSW,240,0.0,0.0,96,0.00,,---,0.02,VWS V14.01,2013-10-19 12:24:00,
2013-10-19 07:27:00,41.6,40.5,29.75,WSW,240,0.0,2.0,96,0.00,,---,0.02,VWS V14.01,2013-10-19 12:27:00,
2013-10-19 07:28:00,41.6,40.5,29.75,SW,235,1.0,2.0,96,0.00,,---,0.02,VWS V14.01,2013-10-19 12:28:00,
2013-10-19 07:29:00,41.6,40.5,29.75,SW,236,0.0,0.0,96,0.00,,---,0.02,VWS V14.01,2013-10-19 12:29:00,
2013-10-19 07:31:00,41.6,40.5,29.75,WSW,240,2.0,4.0,96,0.00,,---,0.02,VWS V14.01,2013-10-19 12:31:00,
2013-10-19 07:32:00,41.6,40.5,29.75,SW,234,0.0,2.0,96,0.00,,---,0.02,VWS V14.01,2013-10-19 12:32:00,
2013-10-19 07:33:00,41.6,40.5,29.75,SW,234,0.0,1.0,96,0.00,,---,0.02,VWS V14.01,2013-10-19 12:33:00,
2013-10-19 07:34:00,41.5,40.5,29.75,SW,222,0.0,0.0,96,0.00,,---,0.02,VWS V14.01,2013-10-19 12:34:00,
2013-10-19 07:35:00,41.5,40.5,29.75,SSW,212,2.0,2.0,96,0.00,,---,0.02,VWS V14.01,2013-10-19 12:35:00,
2013-10-19 07:37:00,41.5,40.5,29.75,SSW,212,0.0,1.0,96,0.00,,---,0.02,VWS V14.01,2013-10-19 12:37:00,
2013-10-19 07:38:00,41.5,40.5,29.75,SSW,212,0.0,0.0,96,0.00,,---,0.02,VWS V14.01,2013-10-19 12:38:00,
2013-10-19 07:40:00,41.5,40.5,29.75,SW,226,0.0,0.0,96,0.00,,---,0.02,VWS V14.01,2013-10-19 12:40:00,
2013-10-19 07:41:00,41.5,40.5,29.75,SW,226,0.0,0.0,96,0.00,,---,0.02,VWS V14.01,2013-10-19 12:41:00,
2013-10-19 07:43:00,41.5,40.5,29.75,WSW,240,0.0,2.0,96,0.00,,---,0.02,VWS V14.01,2013-10-19 12:43:00,
2013-10-19 07:45:00,41.5,40.5,29.75,WSW,240,0.0,0.0,96,0.00,,---,0.02,VWS V14.01,2013-10-19 12:45:00,
2013-10-19 07:46:00,41.5,40.5,29.75,WSW,249,0.0,3.0,96,0.00,,---,0.02,VWS V14.01,2013-10-19 12:46:00,
2013-10-19 07:48:00,41.3,40.2,29.75,WSW,249,0.0,0.0,96,0.00,,---,0.02,VWS V14.01,2013-10-19 12:48:00,
2013-10-19 07:50:00,41.3,40.2,29.75,WSW,249,0.0,0.0,96,0.00,,---,0.02,VWS V14.01,2013-10-19 12:50:00,
2013-10-19 07:53:00,41.3,40.2,29.75,WSW,242,0.0,2.0,96,0.00,,---,0.02,VWS V14.01,2013-10-19 12:53:00,
2013-10-19 07:54:00,41.3,40.2,29.75,WSW,242,0.0,0.0,96,0.00,,---,0.02,VWS V14.01,2013-10-19 12:54:00,
2013-10-19 07:55:00,41.3,40.2,29.75,WSW,242,0.0,0.0,96,0.00,,---,0.02,VWS V14.01,2013-10-19 12:55:00,
2013-10-19 07:56:00,41.3,40.2,29.75,WSW,242,0.0,0.0,96,0.00,,---,0.02,VWS V14.01,2013-10-19 12:56:00,
2013-10-19 07:57:00,41.3,40.2,29.75,WSW,238,0.0,2.0,96,0.00,,---,0.02,VWS V14.01,2013-10-19 12:57:00,
2013-10-19 08:00:00,41.3,40.2,29.75,WSW,246,2.0,3.0,96,0.00,,---,0.02,VWS V14.01,2013-10-19 13:00:00,
2013-10-19 08:01:00,41.3,40.2,29.75,WSW,246,0.0,0.0,96,0.00,,---,0.02,VWS V14.01,2013-10-19 13:01:00,
2013-10-19 08:03:00,41.3,40.2,29.75,WSW,246,0.0,0.0,96,0.00,,---,0.02,VWS V14.01,2013-10-19 13:03:00,
2013-10-19 08:04:00,41.3,40.2,29.75,WSW,246,0.0,0.0,96,0.00,,---,0.02,VWS V14.01,2013-10-19 13:04:00,
2013-10-19 08:05:00,41.3,40.2,29.75,WSW,246,0.0,2.0,96,0.00,,---,0.02,VWS V14.01,2013-10-19 13:05:00,
2013-10-19 08:06:00,41.3,40.2,29.75,WSW,246,0.0,0.0,96,0.00,,---,0.02,VWS V14.01,2013-10-19 13:06:00,
2013-10-19 08:09:00,41.3,40.2,29.75,WSW,254,0.0,0.0,96,0.00,,---,0.02,VWS V14.01,2013-10-19 13:09:00,
2013-10-19 08:10:00,41.3,40.2,29.75,WSW,243,1.0,3.0,96,0.00,,---,0.02,VWS V14.01,2013-10-19 13:10:00,
2013-10-19 08:11:00,41.3,40.2,29.75,WSW,258,0.0,4.0,96,0.00,,---,0.02,VWS V14.01,2013-10-19 13:11:00,
2013-10-19 08:12:00,41.3,40.2,29.75,WSW,258,0.0,2.0,96,0.00,,---,0.02,VWS V14.01,2013-10-19 13:12:00,
2013-10-19 08:14:00,41.3,40.2,29.75,South,189,2.0,3.0,96,0.00,,---,0.02,VWS V14.01,2013-10-19 13:14:00,
2013-10-19 08:15:00,41.3,40.2,29.75,West,263,1.0,3.0,96,0.00,,---,0.02,VWS V14.01,2013-10-19 13:15:00,
2013-10-19 08:18:00,41.3,40.2,29.75,West,264,0.0,0.0,96,0.00,,---,0.02,VWS V14.01,2013-10-19 13:18:00,
2013-10-19 08:19:00,41.3,40.2,29.75,WSW,253,3.0,4.0,96,0.00,,---,0.02,VWS V14.01,2013-10-19 13:19:00,
2013-10-19 08:20:00,41.3,40.2,29.75,WSW,253,1.0,3.0,96,0.00,,---,0.02,VWS V14.01,2013-10-19 13:20:00,
2013-10-19 08:21:00,41.3,40.2,29.75,SW,232,0.0,2.0,96,0.00,,---,0.02,VWS V14.01,2013-10-19 13:21:00,
2013-10-19 08:23:00,41.3,40.2,29.75,SW,232,0.0,0.0,96,0.00,,---,0.02,VWS V14.01,2013-10-19 13:23:00,
2013-10-19 08:24:00,41.3,40.2,29.75,SW,232,0.0,0.0,96,0.00,,---,0.02,VWS V14.01,2013-10-19 13:24:00,
2013-10-19 08:25:00,41.3,40.2,29.75,SW,236,0.0,1.0,96,0.00,,---,0.02,VWS V14.01,2013-10-19 13:25:00,
2013-10-19 08:26:00,41.3,40.2,29.75,SW,236,0.0,2.0,96,0.00,,---,0.02,VWS V14.01,2013-10-19 13:26:00,
2013-10-19 08:29:00,41.3,40.2,29.75,SW,231,0.0,2.0,96,0.00,,---,0.02,VWS V14.01,2013-10-19 13:29:00,
2013-10-19 08:30:00,41.3,40.2,29.75,SW,236,0.0,2.0,96,0.00,,---,0.02,VWS V14.01,2013-10-19 13:30:00,
2013-10-19 08:34:00,41.3,40.2,29.75,WSW,240,0.0,1.0,96,0.00,,---,0.02,VWS V14.01,2013-10-19 13:34:00,
2013-10-19 08:35:00,41.3,40.2,29.75,WSW,240,0.0,0.0,96,0.00,,---,0.02,VWS V14.01,2013-10-19 13:35:00,
2013-10-19 08:36:00,41.3,40.2,29.75,WSW,253,0.0,2.0,96,0.00,,---,0.02,VWS V14.01,2013-10-19 13:36:00,
2013-10-19 08:37:00,41.3,40.2,29.75,WSW,253,0.0,0.0,96,0.00,,---,0.02,VWS V14.01,2013-10-19 13:37:00,
2013-10-19 08:39:00,41.5,40.5,29.75,SSW,213,0.0,3.0,96,0.00,,---,0.02,VWS V14.01,2013-10-19 13:39:00,
2013-10-19 08:40:00,41.6,40.5,29.75,SW,217,0.0,2.0,96,0.00,,---,0.02,VWS V14.01,2013-10-19 13:40:00,
2013-10-19 08:41:00,41.6,40.5,29.75,WSW,253,0.0,1.0,96,0.00,,---,0.02,VWS V14.01,2013-10-19 13:41:00,
2013-10-19 08:42:00,41.8,40.8,29.75,West,274,3.0,3.0,96,0.00,,---,0.02,VWS V14.01,2013-10-19 13:42:00,
2013-10-19 08:44:00,41.9,40.8,29.76,West,261,4.0,4.0,96,0.00,,---,0.02,VWS V14.01,2013-10-19 13:44:00,
2013-10-19 08:45:00,41.9,40.8,29.76,South,176,4.0,5.0,96,0.00,,---,0.02,VWS V14.01,2013-10-19 13:45:00,
2013-10-19 08:49:00,42.1,40.8,29.76,WSW,257,0.0,1.0,95,0.00,,---,0.02,VWS V14.01,2013-10-19 13:49:00,
2013-10-19 08:50:00,42.1,40.8,29.76,SW,233,1.0,1.0,95,0.00,,---,0.02,VWS V14.01,2013-10-19 13:50:00,
2013-10-19 08:51:00,42.1,40.8,29.76,WNW,283,1.0,4.0,95,0.00,,---,0.02,VWS V14.01,2013-10-19 13:51:00,
2013-10-19 08:52:00,42.2,40.9,29.76,West,264,0.0,2.0,95,0.00,,---,0.02,VWS V14.01,2013-10-19 13:52:00,
2013-10-19 08:55:00,42.2,40.9,29.76,WSW,250,5.0,6.0,95,0.00,,---,0.02,VWS V14.01,2013-10-19 13:55:00,
2013-10-19 08:56:00,42.2,40.9,29.76,WSW,240,1.0,4.0,95,0.00,,---,0.02,VWS V14.01,2013-10-19 13:56:00,
2013-10-19 08:57:00,42.3,41.0,29.76,WSW,252,2.0,5.0,95,0.00,,---,0.02,VWS V14.01,2013-10-19 13:57:00,
2013-10-19 08:58:00,42.3,40.7,29.76,West,267,0.0,0.0,94,0.00,,---,0.02,VWS V14.01,2013-10-19 13:58:00,
2013-10-19 09:00:00,42.5,40.9,29.75,SSW,210,0.0,3.0,94,0.00,,---,0.02,VWS V14.01,2013-10-19 14:00:00,
2013-10-19 09:01:00,42.6,41.0,29.75,WSW,249,2.0,2.0,94,0.00,,---,0.02,VWS V14.01,2013-10-19 14:01:00,
2013-10-19 09:03:00,42.9,41.3,29.75,SW,235,0.0,5.0,94,0.00,,---,0.02,VWS V14.01,2013-10-19 14:03:00,
2013-10-19 09:04:00,42.9,41.3,29.75,WNW,292,0.0,2.0,94,0.00,,---,0.02,VWS V14.01,2013-10-19 14:04:00,
2013-10-19 09:05:00,43.1,41.5,29.75,WNW,292,0.0,1.0,94,0.00,,---,0.02,VWS V14.01,2013-10-19 14:05:00,
2013-10-19 09:06:00,43.1,41.5,29.75,South,181,1.0,2.0,94,0.00,,---,0.02,VWS V14.01,2013-10-19 14:06:00,
2013-10-19 09:07:00,43.2,41.6,29.75,West,262,1.0,1.0,94,0.00,,---,0.02,VWS V14.01,2013-10-19 14:07:00,
2013-10-19 09:09:00,43.3,41.7,29.75,SW,229,0.0,1.0,94,0.00,,---,0.02,VWS V14.01,2013-10-19 14:09:00,
2013-10-19 09:11:00,43.5,41.6,29.75,WSW,243,4.0,6.0,93,0.00,,---,0.02,VWS V14.01,2013-10-19 14:11:00,
2013-10-19 09:13:00,43.5,41.3,29.75,WSW,241,5.0,5.0,92,0.00,,---,0.02,VWS V14.01,2013-10-19 14:13:00,
2013-10-19 09:14:00,43.5,41.3,29.75,WSW,254,1.0,3.0,92,0.00,,---,0.02,VWS V14.01,2013-10-19 14:14:00,
2013-10-19 09:16:00,43.5,41.3,29.75,SW,217,11.0,11.0,92,0.00,,---,0.02,VWS V14.01,2013-10-19 14:16:00,
2013-10-19 09:17:00,43.5,41.3,29.75,West,266,4.0,4.0,92,0.00,,---,0.02,VWS V14.01,2013-10-19 14:17:00,
2013-10-19 09:18:00,43.5,41.0,29.75,WSW,245,1.0,2.0,91,0.00,,---,0.02,VWS V14.01,2013-10-19 14:18:00,
2013-10-19 09:19:00,43.5,41.0,29.75,WSW,252,3.0,5.0,91,0.00,,---,0.02,VWS V14.01,2013-10-19 14:19:00,
2013-10-19 09:20:00,43.5,41.0,29.75,WSW,252,3.0,3.0,91,0.00,,---,0.02,VWS V14.01,2013-10-19 14:20:00,
2013-10-19 09:24:00,43.5,41.0,29.75,West,264,3.0,4.0,91,0.00,,---,0.02,VWS V14.01,2013-10-19 14:24:00,
2013-10-19 09:25:00,43.5,40.8,29.75,West,269,3.0,4.0,90,0.00,,---,0.02,VWS V14.01,2013-10-19 14:25:00,
2013-10-19 09:26:00,43.3,40.6,29.75,WSW,238,1.0,3.0,90,0.00,,---,0.02,VWS V14.01,2013-10-19 14:26:00,
2013-10-19 09:27:00,43.3,40.6,29.75,WNW,291,0.0,1.0,90,0.00,,---,0.02,VWS V14.01,2013-10-19 14:27:00,
2013-10-19 09:29:00,43.5,40.8,29.75,WSW,258,1.0,6.0,90,0.00,,---,0.02,VWS V14.01,2013-10-19 14:29:00,
2013-10-19 09:30:00,43.5,40.8,29.75,SSW,197,2.0,8.0,90,0.00,,---,0.02,VWS V14.01,2013-10-19 14:30:00,
2013-10-19 09:31:00,43.5,40.8,29.75,SW,217,1.0,3.0,90,0.00,,---,0.02,VWS V14.01,2013-10-19 14:31:00,
2013-10-19 09:33:00,43.5,40.8,29.75,WSW,257,4.0,6.0,90,0.00,,---,0.02,VWS V14.01,2013-10-19 14:33:00,
2013-10-19 09:34:00,43.5,40.8,29.75,West,265,3.0,9.0,90,0.00,,---,0.02,VWS V14.01,2013-10-19 14:34:00,
2013-10-19 09:35:00,43.3,40.3,29.75,WSW,246,5.0,5.0,89,0.00,,---,0.02,VWS V14.01,2013-10-19 14:35:00,
2013-10-19 09:36:00,43.3,40.3,29.75,WSW,244,2.0,5.0,89,0.00,,---,0.02,VWS V14.01,2013-10-19 14:36:00,
2013-10-19 09:39:00,43.3,40.3,29.75,WSW,240,0.0,4.0,89,0.00,,---,0.02,VWS V14.01,2013-10-19 14:39:00,
2013-10-19 09:40:00,43.3,40.3,29.75,WSW,250,0.0,1.0,89,0.00,,---,0.02,VWS V14.01,2013-10-19 14:40:00,
2013-10-19 09:41:00,43.3,40.3,29.75,SW,226,2.0,4.0,89,0.00,,---,0.02,VWS V14.01,2013-10-19 14:41:00,
2013-10-19 09:42:00,43.3,40.3,29.75,SW,226,0.0,3.0,89,0.00,,---,0.02,VWS V14.01,2013-10-19 14:42:00,
2013-10-19 09:43:00,43.2,40.2,29.75,SSW,210,0.0,2.0,89,0.00,,---,0.02,VWS V14.01,2013-10-19 14:43:00,
2013-10-19 09:45:00,43.2,40.2,29.75,NW,316,2.0,4.0,89,0.00,,---,0.02,VWS V14.01,2013-10-19 14:45:00,
2013-10-19 09:46:00,43.2,40.2,29.75,West,259,3.0,3.0,89,0.00,,---,0.02,VWS V14.01,2013-10-19 14:46:00,
2013-10-19 09:47:00,43.2,40.2,29.75,SSE,158,0.0,4.0,89,0.00,,---,0.02,VWS V14.01,2013-10-19 14:47:00,
2013-10-19 09:48:00,43.3,40.3,29.75,WSW,244,1.0,3.0,89,0.00,,---,0.02,VWS V14.01,2013-10-19 14:48:00,
2013-10-19 09:50:00,43.5,40.5,29.75,SW,231,1.0,2.0,89,0.00,,---,0.02,VWS V14.01,2013-10-19 14:50:00,
2013-10-19 09:54:00,44.1,40.8,29.75,SSE,147,2.0,5.0,88,0.00,,---,0.02,VWS V14.01,2013-10-19 14:54:00,
2013-10-19 09:55:00,44.2,40.6,29.75,SSW,210,4.0,4.0,87,0.00,,---,0.02,VWS V14.01,2013-10-19 14:55:00,
2013-10-19 09:56:00,44.3,40.7,29.75,WSW,247,5.0,5.0,87,0.00,,---,0.02,VWS V14.01,2013-10-19 14:56:00,
2013-10-19 09:58:00,44.5,40.6,29.75,West,261,0.0,1.0,86,0.00,,---,0.02,VWS V14.01,2013-10-19 14:58:00,
2013-10-19 09:59:00,44.6,41.0,29.75,West,263,0.0,1.0,87,0.00,,---,0.02,VWS V14.01,2013-10-19 14:59:00,
2013-10-19 10:02:00,45.1,41.2,29.75,NW,307,0.0,0.0,86,0.00,,---,0.02,VWS V14.01,2013-10-19 15:02:00,
2013-10-19 10:03:00,45.1,41.2,29.75,ESE,106,0.0,1.0,86,0.00,,---,0.02,VWS V14.01,2013-10-19 15:03:00,
2013-10-19 10:04:00,45.2,41.3,29.75,SE,140,2.0,2.0,86,0.00,,---,0.02,VWS V14.01,2013-10-19 15:04:00,
2013-10-19 10:07:00,45.5,41.0,29.75,WNW,300,0.0,3.0,84,0.00,,---,0.02,VWS V14.01,2013-10-19 15:07:00,
2013-10-19 10:08:00,45.5,41.0,29.75,WSW,246,0.0,5.0,84,0.00,,---,0.02,VWS V14.01,2013-10-19 15:08:00,
2013-10-19 10:09:00,45.7,40.8,29.75,WSW,250,1.0,3.0,83,0.00,,---,0.02,VWS V14.01,2013-10-19 15:09:00,
2013-10-19 10:10:00,45.7,40.8,29.75,SW,233,1.0,4.0,83,0.00,,---,0.02,VWS V14.01,2013-10-19 15:10:00,
2013-10-19 10:11:00,45.7,40.8,29.75,SSE,154,1.0,1.0,83,0.00,,---,0.02,VWS V14.01,2013-10-19 15:11:00,
2013-10-19 10:12:00,45.8,40.9,29.75,WSW,258,2.0,5.0,83,0.00,,---,0.02,VWS V14.01,2013-10-19 15:12:00,
2013-10-19 10:14:00,46.0,41.1,29.74,SW,214,0.0,4.0,83,0.00,,---,0.02,VWS V14.01,2013-10-19 15:14:00,
2013-10-19 10:16:00,46.1,40.9,29.74,West,264,1.0,1.0,82,0.00,,---,0.02,VWS V14.01,2013-10-19 15:16:00,
2013-10-19 10:19:00,46.4,40.9,29.74,West,269,3.0,4.0,81,0.00,,---,0.02,VWS V14.01,2013-10-19 15:19:00,
2013-10-19 10:20:00,46.5,40.7,29.74,West,269,1.0,3.0,80,0.00,,---,0.02,VWS V14.01,2013-10-19 15:20:00,
2013-10-19 10:22:00,46.7,40.9,29.74,SE,141,0.0,0.0,80,0.00,,---,0.02,VWS V14.01,2013-10-19 15:22:00,
2013-10-19 10:24:00,47.0,41.2,29.74,SE,141,0.0,0.0,80,0.00,,---,0.02,VWS V14.01,2013-10-19 15:24:00,
2013-10-19 10:25:00,47.1,41.3,29.74,SW,214,1.0,2.0,80,0.00,,---,0.02,VWS V14.01,2013-10-19 15:25:00,
2013-10-19 10:27:00,47.4,41.5,29.74,WSW,237,0.0,5.0,80,0.00,,---,0.02,VWS V14.01,2013-10-19 15:27:00,
2013-10-19 10:29:00,47.7,41.5,29.73,SW,236,3.0,4.0,79,0.00,,---,0.02,VWS V14.01,2013-10-19 15:29:00,
2013-10-19 10:31:00,47.9,41.4,29.73,SW,224,2.0,2.0,78,0.00,,---,0.02,VWS V14.01,2013-10-19 15:31:00,
2013-10-19 10:32:00,47.9,41.0,29.73,SW,218,3.0,3.0,77,0.00,,---,0.02,VWS V14.01,2013-10-19 15:32:00,
2013-10-19 10:33:00,48.0,41.5,29.73,WSW,257,3.0,5.0,78,0.00,,---,0.02,VWS V14.01,2013-10-19 15:33:00,
2013-10-19 10:35:00,48.0,40.5,29.73,SSW,202,2.0,5.0,75,0.00,,---,0.02,VWS V14.01,2013-10-19 15:35:00,
2013-10-19 10:36:00,47.9,40.4,29.73,WSW,256,2.0,4.0,75,0.00,,---,0.02,VWS V14.01,2013-10-19 15:36:00,
2013-10-19 10:38:00,47.9,40.0,29.73,SW,219,0.0,6.0,74,0.00,,---,0.02,VWS V14.01,2013-10-19 15:38:00,
2013-10-19 10:39:00,47.7,40.2,29.73,WSW,245,0.0,4.0,75,0.00,,---,0.02,VWS V14.01,2013-10-19 15:39:00,
2013-10-19 10:40:00,47.9,40.7,29.73,West,267,2.0,2.0,76,0.00,,---,0.02,VWS V14.01,2013-10-19 15:40:00,
2013-10-19 10:41:00,47.9,40.0,29.73,SW,230,2.0,2.0,74,0.00,,---,0.02,VWS V14.01,2013-10-19 15:41:00,
2013-10-19 10:42:00,47.9,40.4,29.73,West,259,0.0,0.0,75,0.00,,---,0.02,VWS V14.01,2013-10-19 15:42:00,
2013-10-19 10:43:00,47.9,40.4,29.73,West,272,4.0,4.0,75,0.00,,---,0.02,VWS V14.01,2013-10-19 15:43:00,
2013-10-19 10:44:00,47.9,40.4,29.73,SSW,206,2.0,4.0,75,0.00,,---,0.02,VWS V14.01,2013-10-19 15:44:00,
2013-10-19 10:45:00,47.9,40.0,29.73,NNW,328,1.0,2.0,74,0.00,,---,0.02,VWS V14.01,2013-10-19 15:45:00,
2013-10-19 10:48:00,48.3,40.8,29.73,NW,316,0.0,1.0,75,0.00,,---,0.02,VWS V14.01,2013-10-19 15:48:00,
2013-10-19 10:49:00,48.5,40.6,29.73,West,275,0.0,2.0,74,0.00,,---,0.02,VWS V14.01,2013-10-19 15:49:00,
2013-10-19 10:50:00,48.8,41.2,29.73,West,275,0.0,0.0,75,0.00,,---,0.02,VWS V14.01,2013-10-19 15:50:00,
2013-10-19 10:51:00,48.9,41.3,29.73,West,275,0.0,1.0,75,0.00,,---,0.02,VWS V14.01,2013-10-19 15:51:00,
2013-10-19 10:52:00,49.1,41.2,29.73,NW,318,2.0,2.0,74,0.00,,---,0.02,VWS V14.01,2013-10-19 15:52:00,
2013-10-19 10:54:00,49.4,41.5,29.73,SW,216,1.0,1.0,74,0.00,,---,0.02,VWS V14.01,2013-10-19 15:54:00,
2013-10-19 10:57:00,49.6,40.6,29.73,NW,315,1.0,2.0,71,0.00,,---,0.02,VWS V14.01,2013-10-19 15:57:00,
2013-10-19 10:59:00,49.6,40.2,29.72,SW,227,0.0,1.0,70,0.00,,---,0.02,VWS V14.01,2013-10-19 15:59:00,
2013-10-19 11:00:00,49.6,40.2,29.72,SW,227,0.0,0.0,70,0.00,,---,0.02,VWS V14.01,2013-10-19 16:00:00,
2013-10-19 11:01:00,49.8,40.8,29.72,SW,235,7.0,7.0,71,0.00,,---,0.02,VWS V14.01,2013-10-19 16:01:00,
2013-10-19 11:02:00,49.8,40.8,29.72,WSW,240,3.0,7.0,71,0.00,,---,0.02,VWS V14.01,2013-10-19 16:02:00,
2013-10-19 11:03:00,49.8,40.0,29.72,West,259,2.0,4.0,69,0.00,,---,0.02,VWS V14.01,2013-10-19 16:03:00,
2013-10-19 11:05:00,49.8,40.8,29.72,West,264,0.0,1.0,71,0.00,,---,0.02,VWS V14.01,2013-10-19 16:05:00,
2013-10-19 11:07:00,50.1,41.1,29.72,SW,235,1.0,2.0,71,0.00,,---,0.02,VWS V14.01,2013-10-19 16:07:00,
2013-10-19 11:08:00,50.1,41.1,29.72,NW,321,3.0,3.0,71,0.00,,---,0.02,VWS V14.01,2013-10-19 16:08:00,
2013-10-19 11:10:00,50.2,40.4,29.72,WSW,237,0.0,3.0,69,0.00,,---,0.02,VWS V14.01,2013-10-19 16:10:00,
2013-10-19 11:11:00,50.2,40.4,29.72,SW,214,0.0,1.0,69,0.00,,---,0.02,VWS V14.01,2013-10-19 16:11:00,
2013-10-19 11:12:00,50.4,41.0,29.72,North,356,0.0,0.0,70,0.00,,---,0.02,VWS V14.01,2013-10-19 16:12:00,
2013-10-19 11:13:00,50.4,41.0,29.72,West,270,0.0,0.0,70,0.00,,---,0.02,VWS V14.01,2013-10-19 16:13:00,
2013-10-19 11:14:00,50.5,41.1,29.72,West,262,0.0,0.0,70,0.00,,---,0.02,VWS V14.01,2013-10-19 16:14:00,
2013-10-19 11:16:00,50.5,40.3,29.72,West,268,1.0,1.0,68,0.00,,---,0.02,VWS V14.01,2013-10-19 16:16:00,
2013-10-19 11:17:00,50.7,40.5,29.72,NW,314,1.0,3.0,68,0.00,,---,0.02,VWS V14.01,2013-10-19 16:17:00,
2013-10-19 11:18:00,50.7,40.5,29.72,NW,314,1.0,1.0,68,0.00,,---,0.02,VWS V14.01,2013-10-19 16:18:00,
2013-10-19 11:21:00,50.8,40.6,29.72,West,268,0.0,0.0,68,0.00,,---,0.02,VWS V14.01,2013-10-19 16:21:00,
2013-10-19 11:22:00,50.8,40.2,29.72,West,266,0.0,1.0,67,0.00,,---,0.02,VWS V14.01,2013-10-19 16:22:00,
2013-10-19 11:23:00,50.8,40.2,29.72,SW,231,1.0,3.0,67,0.00,,---,0.02,VWS V14.01,2013-10-19 16:23:00,
2013-10-19 11:24:00,50.8,39.9,29.72,WSW,240,0.0,0.0,66,0.00,,---,0.02,VWS V14.01,2013-10-19 16:24:00,
2013-10-19 11:26:00,51.0,40.8,29.72,WSW,250,0.0,0.0,68,0.00,,---,0.02,VWS V14.01,2013-10-19 16:26:00,
2013-10-19 11:27:00,51.0,40.1,29.72,SW,219,5.0,5.0,66,0.00,,---,0.02,VWS V14.01,2013-10-19 16:27:00,
2013-10-19 11:29:00,51.0,39.7,29.72,WNW,297,1.0,1.0,65,0.00,,---,0.02,VWS V14.01,2013-10-19 16:29:00,
2013-10-19 11:30:00,51.0,39.7,29.72,WNW,297,0.0,1.0,65,0.00,,---,0.02,VWS V14.01,2013-10-19 16:30:00,
2013-10-19 11:31:00,51.0,39.7,29.72,WNW,289,0.0,1.0,65,0.00,,---,0.02,VWS V14.01,2013-10-19 16:31:00,
2013-10-19 11:32:00,51.1,39.8,29.72,NW,305,4.0,5.0,65,0.00,,---,0.02,VWS V14.01,2013-10-19 16:32:00,
2013-10-19 11:33:00,51.1,39.8,29.72,NW,304,1.0,2.0,65,0.00,,---,0.02,VWS V14.01,2013-10-19 16:33:00,
2013-10-19 11:34:00,51.0,39.3,29.72,West,275,2.0,3.0,64,0.00,,---,0.02,VWS V14.01,2013-10-19 16:34:00,
2013-10-19 11:36:00,51.0,39.3,29.72,SW,226,3.0,3.0,64,0.00,,---,0.02,VWS V14.01,2013-10-19 16:36:00,
2013-10-19 11:39:00,51.0,39.7,29.72,SSW,211,0.0,0.0,65,0.00,,---,0.02,VWS V14.01,2013-10-19 16:39:00,
2013-10-19 11:42:00,50.8,39.1,29.72,SW,232,0.0,0.0,64,0.00,,---,0.02,VWS V14.01,2013-10-19 16:42:00,
2013-10-19 11:43:00,50.8,39.5,29.72,SW,224,2.0,3.0,65,0.00,,---,0.02,VWS V14.01,2013-10-19 16:43:00,
2013-10-19 11:45:00,51.0,39.7,29.72,WNW,283,4.0,6.0,65,0.00,,---,0.02,VWS V14.01,2013-10-19 16:45:00,
2013-10-19 11:48:00,50.8,38.3,29.72,West,263,1.0,3.0,62,0.00,,---,0.02,VWS V14.01,2013-10-19 16:48:00,
2013-10-19 11:50:00,51.0,39.3,29.72,West,260,0.0,1.0,64,0.00,,---,0.02,VWS V14.01,2013-10-19 16:50:00,
2013-10-19 11:52:00,51.1,39.4,29.72,NW,312,0.0,1.0,64,0.00,,---,0.02,VWS V14.01,2013-10-19 16:52:00,
2013-10-19 11:53:00,51.3,40.0,29.72,NW,312,0.0,1.0,65,0.00,,---,0.02,VWS V14.01,2013-10-19 16:53:00,
2013-10-19 11:55:00,51.3,39.5,29.72,NNE,22,3.0,3.0,64,0.00,,---,0.02,VWS V14.01,2013-10-19 16:55:00,
2013-10-19 11:59:00,51.9,40.9,29.71,NNE,29,0.0,0.0,66,0.00,,---,0.02,VWS V14.01,2013-10-19 16:59:00,
2013-10-19 12:00:00,52.0,40.2,29.71,SSW,207,1.0,4.0,64,0.00,,---,0.02,VWS V14.01,2013-10-19 17:00:00,
2013-10-19 12:04:00,52.0,38.1,29.71,WSW,253,0.0,4.0,59,0.00,,---,0.02,VWS V14.01,2013-10-19 17:04:00,
2013-10-19 12:05:00,52.0,39.0,29.71,West,266,0.0,1.0,61,0.00,,---,0.02,VWS V14.01,2013-10-19 17:05:00,
2013-10-19 12:06:00,51.9,38.9,29.71,SW,218,3.0,3.0,61,0.00,,---,0.02,VWS V14.01,2013-10-19 17:06:00,
2013-10-19 12:08:00,51.7,37.8,29.71,WSW,252,3.0,3.0,59,0.00,,---,0.02,VWS V14.01,2013-10-19 17:08:00,
2013-10-19 12:10:00,51.6,37.3,29.71,WSW,250,0.0,0.0,58,0.00,,---,0.02,VWS V14.01,2013-10-19 17:10:00,
2013-10-19 12:12:00,51.4,37.1,29.71,WSW,250,3.0,3.0,58,0.00,,---,0.02,VWS V14.01,2013-10-19 17:12:00,
2013-10-19 12:13:00,51.3,37.5,29.71,NW,318,2.0,2.0,59,0.00,,---,0.02,VWS V14.01,2013-10-19 17:13:00,
2013-10-19 12:15:00,51.4,37.6,29.71,SW,219,0.0,3.0,59,0.00,,---,0.02,VWS V14.01,2013-10-19 17:15:00,
2013-10-19 12:16:00,51.6,38.2,29.71,SW,216,3.0,3.0,60,0.00,,---,0.02,VWS V14.01,2013-10-19 17:16:00,
2013-10-19 12:17:00,51.7,38.7,29.71,SW,221,0.0,3.0,61,0.00,,---,0.02,VWS V14.01,2013-10-19 17:17:00,
2013-10-19 12:18:00,51.9,38.9,29.71,NW,326,0.0,2.0,61,0.00,,---,0.02,VWS V14.01,2013-10-19 17:18:00,
2013-10-19 12:19:00,52.0,39.0,29.71,SW,223,2.0,3.0,61,0.00,,---,0.02,VWS V14.01,2013-10-19 17:19:00,
2013-10-19 12:20:00,52.2,38.8,29.71,SW,223,0.0,1.0,60,0.00,,---,0.02,VWS V14.01,2013-10-19 17:20:00,
2013-10-19 12:21:00,52.3,38.8,29.71,WSW,248,2.0,2.0,60,0.00,,---,0.02,VWS V14.01,2013-10-19 17:21:00,
2013-10-19 12:22:00,52.5,37.3,29.71,NNW,329,4.0,5.0,56,0.00,,---,0.02,VWS V14.01,2013-10-19 17:22:00,
2013-10-19 12:23:00,52.5,37.3,29.71,NNW,345,0.0,4.0,56,0.00,,---,0.02,VWS V14.01,2013-10-19 17:23:00,
2013-10-19 12:24:00,52.6,37.8,29.71,SW,235,3.0,3.0,57,0.00,,---,0.02,VWS V14.01,2013-10-19 17:24:00,
2013-10-19 12:25:00,52.8,38.5,29.71,West,276,3.0,3.0,58,0.00,,---,0.02,VWS V14.01,2013-10-19 17:25:00,
2013-10-19 12:26:00,52.8,37.5,29.71,SW,216,0.0,6.0,56,0.00,,---,0.02,VWS V14.01,2013-10-19 17:26:00,
2013-10-19 12:28:00,52.9,38.1,29.71,West,266,3.0,6.0,57,0.00,,---,0.02,VWS V14.01,2013-10-19 17:28:00,
2013-10-19 12:29:00,53.1,37.8,29.71,WSW,246,3.0,5.0,56,0.00,,---,0.02,VWS V14.01,2013-10-19 17:29:00,
2013-10-19 12:30:00,53.1,37.4,29.71,WSW,256,1.0,3.0,55,0.00,,---,0.02,VWS V14.01,2013-10-19 17:30:00,
2013-10-19 12:31:00,53.1,36.9,29.71,West,271,6.0,6.0,54,0.00,,---,0.02,VWS V14.01,2013-10-19 17:31:00,
2013-10-19 12:33:00,52.9,36.2,29.71,NNW,333,3.0,3.0,53,0.00,,---,0.02,VWS V14.01,2013-10-19 17:33:00,
2013-10-19 12:35:00,52.9,36.7,29.71,NW,313,0.0,1.0,54,0.00,,---,0.02,VWS V14.01,2013-10-19 17:35:00,
2013-10-19 12:37:00,52.6,36.0,29.71,SW,227,1.0,6.0,53,0.00,,---,0.02,VWS V14.01,2013-10-19 17:37:00,
2013-10-19 12:38:00,52.6,36.0,29.71,WSW,243,1.0,2.0,53,0.00,,---,0.02,VWS V14.01,2013-10-19 17:38:00,
2013-10-19 12:40:00,52.2,35.6,29.71,SW,236,0.0,3.0,53,0.00,,---,0.02,VWS V14.01,2013-10-19 17:40:00,
2013-10-19 12:41:00,52.0,35.4,29.71,SSW,210,0.0,1.0,53,0.00,,---,0.02,VWS V14.01,2013-10-19 17:41:00,
2013-10-19 12:42:00,51.9,35.3,29.71,West,264,5.0,5.0,53,0.00,,---,0.02,VWS V14.01,2013-10-19 17:42:00,
2013-10-19 12:43:00,51.7,35.1,29.71,West,262,7.0,7.0,53,0.00,,---,0.02,VWS V14.01,2013-10-19 17:43:00,
2013-10-19 12:44:00,51.6,35.0,29.71,North,351,3.0,3.0,53,0.00,,---,0.02,VWS V14.01,2013-10-19 17:44:00,
2013-10-19 12:46:00,51.4,35.3,29.71,SSW,201,1.0,6.0,54,0.00,,---,0.02,VWS V14.01,2013-10-19 17:46:00,
2013-10-19 12:47:00,51.4,35.3,29.71,NW,310,2.0,3.0,54,0.00,,---,0.02,VWS V14.01,2013-10-19 17:47:00,
2013-10-19 12:49:00,51.3,35.2,29.71,WSW,255,0.0,0.0,54,0.00,,---,0.02,VWS V14.01,2013-10-19 17:49:00,
2013-10-19 12:50:00,51.4,35.8,29.71,North,9,1.0,1.0,55,0.00,,---,0.02,VWS V14.01,2013-10-19 17:50:00,
2013-10-19 12:51:00,51.4,36.2,29.71,NE,39,0.0,1.0,56,0.00,,---,0.02,VWS V14.01,2013-10-19 17:51:00,
2013-10-19 12:52:00,51.6,36.9,29.71,SW,229,1.0,1.0,57,0.00,,---,0.02,VWS V14.01,2013-10-19 17:52:00,
2013-10-19 12:54:00,52.0,36.8,29.71,West,274,4.0,6.0,56,0.00,,---,0.02,VWS V14.01,2013-10-19 17:54:00,
2013-10-19 12:55:00,52.2,37.0,29.71,WSW,248,5.0,5.0,56,0.00,,---,0.02,VWS V14.01,2013-10-19 17:55:00,
2013-10-19 12:56:00,52.3,34.7,29.71,SW,226,5.0,6.0,51,0.00,,---,0.02,VWS V14.01,2013-10-19 17:56:00,
2013-10-19 12:57:00,52.5,34.9,29.71,WSW,248,2.0,8.0,51,0.00,,---,0.02,VWS V14.01,2013-10-19 17:57:00,
2013-10-19 12:59:00,52.5,34.4,29.70,WSW,250,4.0,4.0,50,0.00,,---,0.02,VWS V14.01,2013-10-19 17:59:00,
2013-10-19 13:00:00,52.5,34.9,29.70,WSW,252,0.0,4.0,51,0.00,,---,0.02,VWS V14.01,2013-10-19 18:00:00,
2013-10-19 13:01:00,52.5,34.9,29.70,WNW,285,0.0,1.0,51,0.00,,---,0.02,VWS V14.01,2013-10-19 18:01:00,
2013-10-19 13:04:00,52.2,35.1,29.70,WSW,255,0.0,0.0,52,0.00,,---,0.02,VWS V14.01,2013-10-19 18:04:00,
2013-10-19 13:05:00,52.2,35.6,29.70,SSE,161,0.0,1.0,53,0.00,,---,0.02,VWS V14.01,2013-10-19 18:05:00,
2013-10-19 13:06:00,52.2,35.6,29.70,NW,318,1.0,4.0,53,0.00,,---,0.02,VWS V14.01,2013-10-19 18:06:00,
2013-10-19 13:07:00,52.0,35.4,29.70,SW,221,6.0,6.0,53,0.00,,---,0.02,VWS V14.01,2013-10-19 18:07:00,
2013-10-19 13:10:00,51.9,34.8,29.70,West,260,1.0,4.0,52,0.00,,---,0.02,VWS V14.01,2013-10-19 18:10:00,
2013-10-19 13:11:00,51.9,34.4,29.70,North,0,2.0,2.0,51,0.00,,---,0.02,VWS V14.01,2013-10-19 18:11:00,
2013-10-19 13:12:00,51.7,34.2,29.70,WNW,298,0.0,2.0,51,0.00,,---,0.02,VWS V14.01,2013-10-19 18:12:00,
2013-10-19 13:15:00,52.2,36.1,29.70,WNW,282,0.0,4.0,54,0.00,,---,0.02,VWS V14.01,2013-10-19 18:15:00,
2013-10-19 13:16:00,52.3,35.7,29.70,WSW,246,0.0,4.0,53,0.00,,---,0.02,VWS V14.01,2013-10-19 18:16:00,
2013-10-19 13:17:00,52.5,35.9,29.70,West,264,0.0,2.0,53,0.00,,---,0.02,VWS V14.01,2013-10-19 18:17:00,
2013-10-19 13:18:00,52.6,34.5,29.70,SW,227,1.0,2.0,50,0.00,,---,0.02,VWS V14.01,2013-10-19 18:18:00,
2013-10-19 13:19:00,52.8,34.7,29.70,NW,321,2.0,3.0,50,0.00,,---,0.02,VWS V14.01,2013-10-19 18:19:00,
2013-10-19 13:21:00,52.9,33.2,29.70,NW,314,1.0,4.0,47,0.00,,---,0.02,VWS V14.01,2013-10-19 18:21:00,
2013-10-19 13:23:00,53.3,34.7,29.70,ESE,115,0.0,0.0,49,0.00,,---,0.02,VWS V14.01,2013-10-19 18:23:00,
2013-10-19 13:25:00,53.6,33.9,29.70,West,281,2.0,5.0,47,0.00,,---,0.02,VWS V14.01,2013-10-19 18:25:00,
2013-10-19 13:26:00,53.6,33.3,29.70,WSW,250,2.0,7.0,46,0.00,,---,0.02,VWS V14.01,2013-10-19 18:26:00,
2013-10-19 13:27:00,53.8,34.1,29.70,SW,226,3.0,3.0,47,0.00,,---,0.02,VWS V14.01,2013-10-19 18:27:00,
2013-10-19 13:31:00,53.6,33.3,29.69,SSW,197,1.0,2.0,46,0.00,,---,0.02,VWS V14.01,2013-10-19 18:31:00,
2013-10-19 13:32:00,53.6,33.3,29.69,NE,41,2.0,2.0,46,0.00,,---,0.02,VWS V14.01,2013-10-19 18:32:00,
2013-10-19 13:33:00,53.5,33.8,29.69,SW,236,0.0,4.0,47,0.00,,---,0.02,VWS V14.01,2013-10-19 18:33:00,
2013-10-19 13:34:00,53.3,33.1,29.69,WNW,288,1.0,2.0,46,0.00,,---,0.02,VWS V14.01,2013-10-19 18:34:00,
2013-10-19 13:38:00,52.6,32.4,29.69,WSW,244,0.0,1.0,46,0.00,,---,0.02,VWS V14.01,2013-10-19 18:38:00,
2013-10-19 13:39:00,52.5,32.3,29.69,WSW,243,0.0,2.0,46,0.00,,---,0.02,VWS V14.01,2013-10-19 18:39:00,
2013-10-19 13:40:00,52.3,32.2,29.69,WSW,243,0.0,1.0,46,0.00,,---,0.02,VWS V14.01,2013-10-19 18:40:00,
2013-10-19 13:42:00,52.2,32.1,29.69,WNW,294,4.0,4.0,46,0.00,,---,0.02,VWS V14.01,2013-10-19 18:42:00,
2013-10-19 13:45:00,51.9,31.8,29.68,SSE,161,0.0,2.0,46,0.00,,---,0.02,VWS V14.01,2013-10-19 18:45:00,
2013-10-19 13:46:00,51.9,31.8,29.68,SSE,161,0.0,0.0,46,0.00,,---,0.02,VWS V14.01,2013-10-19 18:46:00,
2013-10-19 13:47:00,52.0,32.9,29.68,SSE,155,0.0,2.0,48,0.00,,---,0.02,VWS V14.01,2013-10-19 18:47:00,
2013-10-19 13:50:00,52.3,32.7,29.68,WSW,257,1.0,1.0,47,0.00,,---,0.02,VWS V14.01,2013-10-19 18:50:00,
2013-10-19 13:52:00,52.9,32.7,29.68,WSW,245,0.0,3.0,46,0.00,,---,0.02,VWS V14.01,2013-10-19 18:52:00,
2013-10-19 13:55:00,53.5,31.0,29.68,WNW,288,2.0,6.0,42,0.00,,---,0.02,VWS V14.01,2013-10-19 18:55:00,
2013-10-19 13:56:00,53.6,30.5,29.68,West,278,3.0,5.0,41,0.00,,---,0.02,VWS V14.01,2013-10-19 18:56:00,
2013-10-19 13:57:00,53.6,30.5,29.68,WNW,287,0.0,5.0,41,0.00,,---,0.02,VWS V14.01,2013-10-19 18:57:00,
2013-10-19 14:01:00,53.2,31.3,29.68,WSW,243,0.0,1.0,43,0.00,,---,0.02,VWS V14.01,2013-10-19 19:01:00,
2013-10-19 14:04:00,52.8,30.9,29.68,SSW,198,3.0,4.0,43,0.00,,---,0.02,VWS V14.01,2013-10-19 19:04:00,
2013-10-19 14:06:00,52.5,31.8,29.68,WSW,248,4.0,4.0,45,0.00,,---,0.02,VWS V14.01,2013-10-19 19:06:00,
2013-10-19 14:07:00,52.3,31.6,29.68,SW,220,2.0,5.0,45,0.00,,---,0.02,VWS V14.01,2013-10-19 19:07:00,
2013-10-19 14:10:00,51.9,30.7,29.68,WSW,240,4.0,7.0,44,0.00,,---,0.02,VWS V14.01,2013-10-19 19:10:00,
2013-10-19 14:11:00,51.6,30.4,29.68,SSW,209,4.0,6.0,44,0.00,,---,0.02,VWS V14.01,2013-10-19 19:11:00,
2013-10-19 14:12:00,51.6,30.4,29.68,SSW,209,4.0,4.0,44,0.00,,---,0.02,VWS V14.01,2013-10-19 19:12:00,
2013-10-19 14:15:00,51.1,31.1,29.69,SW,222,0.0,3.0,46,0.00,,---,0.02,VWS V14.01,2013-10-19 19:15:00,
2013-10-19 14:16:00,51.1,31.6,29.69,WSW,242,0.0,1.0,47,0.00,,---,0.02,VWS V14.01,2013-10-19 19:16:00,
2013-10-19 14:17:00,51.1,31.6,29.69,WSW,256,1.0,2.0,47,0.00,,---,0.02,VWS V14.01,2013-10-19 19:17:00,
2013-10-19 14:20:00,51.0,32.0,29.69,NNW,344,0.0,2.0,48,0.00,,---,0.02,VWS V14.01,2013-10-19 19:20:00,
2013-10-19 14:21:00,50.8,32.8,29.69,West,271,2.0,5.0,50,0.00,,---,0.02,VWS V14.01,2013-10-19 19:21:00,
2013-10-19 14:23:00,50.8,32.3,29.69,SSW,198,0.0,0.0,49,0.00,,---,0.02,VWS V14.01,2013-10-19 19:23:00,
2013-10-19 14:24:00,50.8,33.3,29.69,SSE,158,0.0,4.0,51,0.00,,---,0.02,VWS V14.01,2013-10-19 19:24:00,
2013-10-19 14:25:00,50.8,33.3,29.69,West,272,3.0,7.0,51,0.00,,---,0.02,VWS V14.01,2013-10-19 19:25:00,
2013-10-19 14:28:00,50.8,33.3,29.69,South,183,2.0,4.0,51,0.00,,---,0.02,VWS V14.01,2013-10-19 19:28:00,
2013-10-19 14:29:00,50.8,33.3,29.68,West,265,0.0,3.0,51,0.00,,---,0.02,VWS V14.01,2013-10-19 19:29:00,
2013-10-19 14:30:00,50.8,33.3,29.68,West,265,0.0,0.0,51,0.00,,---,0.02,VWS V14.01,2013-10-19 19:30:00,
2013-10-19 14:32:00,51.0,34.0,29.68,NNE,23,0.0,6.0,52,0.00,,---,0.02,VWS V14.01,2013-10-19 19:32:00,
2013-10-19 14:33:00,51.0,33.5,29.68,NNE,20,0.0,0.0,51,0.00,,---,0.02,VWS V14.01,2013-10-19 19:33:00,
2013-10-19 14:34:00,51.1,34.1,29.68,SSW,192,0.0,1.0,52,0.00,,---,0.02,VWS V14.01,2013-10-19 19:34:00,
2013-10-19 14:35:00,51.1,33.6,29.68,SW,233,0.0,2.0,51,0.00,,---,0.02,VWS V14.01,2013-10-19 19:35:00,
2013-10-19 14:39:00,51.0,34.0,29.68,WSW,241,2.0,2.0,52,0.00,,---,0.02,VWS V14.01,2013-10-19 19:39:00,
2013-10-19 14:41:00,51.0,34.5,29.68,WSW,238,0.0,0.0,53,0.00,,---,0.02,VWS V14.01,2013-10-19 19:41:00,
2013-10-19 14:42:00,51.0,34.5,29.68,WSW,238,0.0,0.0,53,0.00,,---,0.02,VWS V14.01,2013-10-19 19:42:00,
2013-10-19 14:43:00,51.0,34.5,29.68,WSW,237,0.0,0.0,53,0.00,,---,0.02,VWS V14.01,2013-10-19 19:43:00,
2013-10-19 14:44:00,51.0,34.5,29.68,WSW,243,0.0,1.0,53,0.00,,---,0.02,VWS V14.01,2013-10-19 19:44:00,
2013-10-19 14:47:00,50.8,33.8,29.68,SW,219,0.0,0.0,52,0.00,,---,0.02,VWS V14.01,2013-10-19 19:47:00,
2013-10-19 14:48:00,50.8,34.8,29.68,NW,314,0.0,4.0,54,0.00,,---,0.02,VWS V14.01,2013-10-19 19:48:00,
2013-10-19 14:49:00,50.8,34.3,29.68,NW,314,0.0,1.0,53,0.00,,---,0.02,VWS V14.01,2013-10-19 19:49:00,
2013-10-19 14:50:00,50.8,34.3,29.68,NW,314,0.0,0.0,53,0.00,,---,0.02,VWS V14.01,2013-10-19 19:50:00,
2013-10-19 14:53:00,50.8,34.8,29.68,NW,314,0.0,0.0,54,0.00,,---,0.02,VWS V14.01,2013-10-19 19:53:00,
2013-10-19 14:54:00,50.8,34.8,29.68,NW,314,0.0,2.0,54,0.00,,---,0.02,VWS V14.01,2013-10-19 19:54:00,
2013-10-19 14:55:00,50.8,34.8,29.68,NW,314,0.0,1.0,54,0.00,,---,0.02,VWS V14.01,2013-10-19 19:55:00,
2013-10-19 14:56:00,50.8,34.8,29.68,NW,314,0.0,2.0,54,0.00,,---,0.02,VWS V14.01,2013-10-19 19:56:00,
2013-10-19 14:58:00,50.8,34.8,29.68,NNW,329,0.0,1.0,54,0.00,,---,0.02,VWS V14.01,2013-10-19 19:58:00,
2013-10-19 15:00:00,50.8,34.8,29.68,NNW,329,0.0,1.0,54,0.00,,---,0.02,VWS V14.01,2013-10-19 20:00:00,
2013-10-19 15:01:00,50.8,34.8,29.68,NNW,329,0.0,1.0,54,0.00,,---,0.02,VWS V14.01,2013-10-19 20:01:00,
2013-10-19 15:02:00,50.8,34.3,29.68,South,173,2.0,3.0,53,0.00,,---,0.02,VWS V14.01,2013-10-19 20:02:00,
2013-10-19 15:03:00,50.8,34.3,29.68,South,191,0.0,2.0,53,0.00,,---,0.02,VWS V14.01,2013-10-19 20:03:00,
2013-10-19 15:06:00,51.0,35.0,29.68,NNW,333,0.0,5.0,54,0.00,,---,0.02,VWS V14.01,2013-10-19 20:06:00,
2013-10-19 15:08:00,51.0,33.0,29.68,WSW,255,2.0,5.0,50,0.00,,---,0.02,VWS V14.01,2013-10-19 20:08:00,
2013-10-19 15:09:00,51.1,32.6,29.68,SW,226,3.0,6.0,49,0.00,,---,0.02,VWS V14.01,2013-10-19 20:09:00,
2013-10-19 15:11:00,51.1,32.6,29.68,West,271,2.0,3.0,49,0.00,,---,0.02,VWS V14.01,2013-10-19 20:11:00,
2013-10-19 15:12:00,51.3,32.8,29.68,NW,308,1.0,3.0,49,0.00,,---,0.02,VWS V14.01,2013-10-19 20:12:00,
2013-10-19 15:13:00,51.3,32.8,29.68,West,265,0.0,2.0,49,0.00,,---,0.02,VWS V14.01,2013-10-19 20:13:00,
2013-10-19 15:16:00,51.4,32.9,29.68,WSW,258,3.0,5.0,49,0.00,,---,0.02,VWS V14.01,2013-10-19 20:16:00,
2013-10-19 15:18:00,51.4,33.4,29.68,NW,325,0.0,5.0,50,0.00,,---,0.02,VWS V14.01,2013-10-19 20:18:00,
2013-10-19 15:20:00,51.4,33.4,29.68,SSW,200,0.0,1.0,50,0.00,,---,0.02,VWS V14.01,2013-10-19 20:20:00,
2013-10-19 15:22:00,51.3,33.8,29.68,NW,314,2.0,5.0,51,0.00,,---,0.02,VWS V14.01,2013-10-19 20:22:00,
2013-10-19 15:23:00,51.3,33.8,29.68,NW,314,0.0,2.0,51,0.00,,---,0.02,VWS V14.01,2013-10-19 20:23:00,
2013-10-19 15:24:00,51.3,33.3,29.68,NW,320,2.0,2.0,50,0.00,,---,0.02,VWS V14.01,2013-10-19 20:24:00,
2013-10-19 15:25:00,51.3,33.3,29.68,West,259,1.0,3.0,50,0.00,,---,0.02,VWS V14.01,2013-10-19 20:25:00,
2013-10-19 15:29:00,51.3,33.3,29.68,West,259,0.0,0.0,50,0.00,,---,0.02,VWS V14.01,2013-10-19 20:29:00,
2013-10-19 15:30:00,51.3,33.3,29.68,West,259,0.0,0.0,50,0.00,,---,0.02,VWS V14.01,2013-10-19 20:30:00,
2013-10-19 15:31:00,51.0,33.0,29.68,WSW,238,3.0,5.0,50,0.00,,---,0.02,VWS V14.01,2013-10-19 20:31:00,
2013-10-19 15:33:00,51.0,32.5,29.68,NW,316,0.0,1.0,49,0.00,,---,0.02,VWS V14.01,2013-10-19 20:33:00,
2013-10-19 15:35:00,51.0,33.0,29.68,NW,316,0.0,0.0,50,0.00,,---,0.02,VWS V14.01,2013-10-19 20:35:00,
2013-10-19 15:36:00,51.0,33.0,29.68,WSW,248,0.0,1.0,50,0.00,,---,0.02,VWS V14.01,2013-10-19 20:36:00,
2013-10-19 15:38:00,50.8,32.8,29.68,WSW,248,0.0,0.0,50,0.00,,---,0.02,VWS V14.01,2013-10-19 20:38:00,
2013-10-19 15:39:00,50.8,33.3,29.68,WSW,243,0.0,2.0,51,0.00,,---,0.02,VWS V14.01,2013-10-19 20:39:00,
2013-10-19 15:40:00,50.8,32.8,29.68,NW,319,0.0,2.0,50,0.00,,---,0.02,VWS V14.01,2013-10-19 20:40:00,
2013-10-19 15:42:00,50.8,32.8,29.68,WNW,286,0.0,3.0,50,0.00,,---,0.02,VWS V14.01,2013-10-19 20:42:00,
2013-10-19 15:43:00,50.8,32.8,29.68,NW,317,0.0,3.0,50,0.00,,---,0.02,VWS V14.01,2013-10-19 20:43:00,
2013-10-19 15:45:00,50.8,32.8,29.68,SSW,211,0.0,1.0,50,0.00,,---,0.02,VWS V14.01,2013-10-19 20:45:00,
2013-10-19 15:46:00,50.8,33.3,29.68,West,267,3.0,5.0,51,0.00,,---,0.02,VWS V14.01,2013-10-19 20:46:00,
2013-10-19 15:47:00,51.0,33.0,29.68,WSW,257,4.0,5.0,50,0.00,,---,0.02,VWS V14.01,2013-10-19 20:47:00,
2013-10-19 15:48:00,51.0,33.0,29.68,WNW,282,2.0,2.0,50,0.00,,---,0.02,VWS V14.01,2013-10-19 20:48:00,
2013-10-19 15:49:00,51.0,33.0,29.68,WSW,240,4.0,5.0,50,0.00,,---,0.02,VWS V14.01,2013-10-19 20:49:00,
2013-10-19 15:50:00,51.1,33.1,29.68,WSW,241,6.0,6.0,50,0.00,,---,0.02,VWS V14.01,2013-10-19 20:50:00,
2013-10-19 15:51:00,51.1,33.1,29.68,West,274,1.0,4.0,50,0.00,,---,0.02,VWS V14.01,2013-10-19 20:51:00,
2013-10-19 15:52:00,51.3,33.3,29.68,NNW,327,2.0,2.0,50,0.00,,---,0.02,VWS V14.01,2013-10-19 20:52:00,
2013-10-19 15:54:00,51.6,34.1,29.68,WNW,283,0.0,2.0,51,0.00,,---,0.02,VWS V14.01,2013-10-19 20:54:00,
2013-10-19 15:55:00,51.7,34.2,29.68,SSW,210,4.0,4.0,51,0.00,,---,0.02,VWS V14.01,2013-10-19 20:55:00,
2013-10-19 15:56:00,51.9,33.9,29.68,NW,304,0.0,10.0,50,0.00,,---,0.02,VWS V14.01,2013-10-19 20:56:00,
2013-10-19 15:57:00,52.0,33.5,29.68,WNW,295,2.0,4.0,49,0.00,,---,0.02,VWS V14.01,2013-10-19 20:57:00,
2013-10-19 15:59:00,52.2,33.6,29.68,NW,321,2.0,4.0,49,0.00,,---,0.02,VWS V14.01,2013-10-19 20:59:00,
2013-10-19 16:01:00,52.2,34.1,29.68,SSW,205,3.0,5.0,50,0.00,,---,0.02,VWS V14.01,2013-10-19 21:01:00,
2013-10-19 16:02:00,52.2,34.1,29.68,WSW,244,4.0,4.0,50,0.00,,---,0.02,VWS V14.01,2013-10-19 21:02:00,
2013-10-19 16:03:00,52.2,34.1,29.68,WSW,253,0.0,2.0,50,0.00,,---,0.02,VWS V14.01,2013-10-19 21:03:00,
2013-10-19 16:04:00,52.3,34.2,29.68,North,349,2.0,4.0,50,0.00,,---,0.02,VWS V14.01,2013-10-19 21:04:00,
2013-10-19 16:05:00,52.3,34.2,29.68,North,0,0.0,4.0,50,0.00,,---,0.02,VWS V14.01,2013-10-19 21:05:00,
2013-10-19 16:06:00,52.5,33.9,29.68,SSE,154,2.0,5.0,49,0.00,,---,0.02,VWS V14.01,2013-10-19 21:06:00,
2013-10-19 16:07:00,52.5,33.4,29.68,SSE,148,0.0,0.0,48,0.00,,---,0.02,VWS V14.01,2013-10-19 21:07:00,
2013-10-19 16:08:00,52.5,33.9,29.68,SW,221,0.0,3.0,49,0.00,,---,0.02,VWS V14.01,2013-10-19 21:08:00,
2013-10-19 16:09:00,52.6,33.5,29.68,West,268,0.0,5.0,48,0.00,,---,0.02,VWS V14.01,2013-10-19 21:09:00,
2013-10-19 16:12:00,52.5,32.9,29.68,West,277,5.0,5.0,47,0.00,,---,0.02,VWS V14.01,2013-10-19 21:12:00,
2013-10-19 16:16:00,52.3,34.2,29.69,NNW,333,2.0,4.0,50,0.00,,---,0.02,VWS V14.01,2013-10-19 21:16:00,
2013-10-19 16:17:00,52.3,33.2,29.69,NW,323,0.0,3.0,48,0.00,,---,0.02,VWS V14.01,2013-10-19 21:17:00,
2013-10-19 16:18:00,52.3,33.7,29.69,NW,323,0.0,0.0,49,0.00,,---,0.02,VWS V14.01,2013-10-19 21:18:00,
2013-10-19 16:20:00,52.3,33.7,29.69,SW,222,1.0,2.0,49,0.00,,---,0.02,VWS V14.01,2013-10-19 21:20:00,
2013-10-19 16:21:00,52.5,34.4,29.69,WSW,243,1.0,2.0,50,0.00,,---,0.02,VWS V14.01,2013-10-19 21:21:00,
2013-10-19 16:22:00,52.5,33.9,29.69,WSW,240,0.0,2.0,49,0.00,,---,0.02,VWS V14.01,2013-10-19 21:22:00,
2013-10-19 16:25:00,52.8,34.2,29.69,WSW,245,1.0,2.0,49,0.00,,---,0.02,VWS V14.01,2013-10-19 21:25:00,
2013-10-19 16:26:00,52.8,33.2,29.69,SW,221,3.0,4.0,47,0.00,,---,0.02,VWS V14.01,2013-10-19 21:26:00,
2013-10-19 16:27:00,52.9,33.2,29.69,West,261,2.0,3.0,47,0.00,,---,0.02,VWS V14.01,2013-10-19 21:27:00,
2013-10-19 16:28:00,52.9,33.2,29.69,SSW,207,1.0,6.0,47,0.00,,---,0.02,VWS V14.01,2013-10-19 21:28:00,
2013-10-19 16:29:00,52.9,33.2,29.69,West,259,0.0,1.0,47,0.00,,---,0.02,VWS V14.01,2013-10-19 21:29:00,
2013-10-19 16:32:00,52.9,32.7,29.69,NW,324,3.0,3.0,46,0.00,,---,0.02,VWS V14.01,2013-10-19 21:32:00,
2013-10-19 16:33:00,52.9,33.2,29.69,NW,324,0.0,3.0,47,0.00,,---,0.02,VWS V14.01,2013-10-19 21:33:00,
2013-10-19 16:35:00,52.8,33.2,29.69,WNW,288,2.0,3.0,47,0.00,,---,0.02,VWS V14.01,2013-10-19 21:35:00,
2013-10-19 16:37:00,52.6,33.0,29.69,NW,307,1.0,1.0,47,0.00,,---,0.02,VWS V14.01,2013-10-19 21:37:00,
2013-10-19 16:39:00,52.5,32.9,29.69,WSW,247,2.0,3.0,47,0.00,,---,0.02,VWS V14.01,2013-10-19 21:39:00,
2013-10-19 16:40:00,52.5,32.9,29.69,WSW,247,0.0,2.0,47,0.00,,---,0.02,VWS V14.01,2013-10-19 21:40:00,
2013-10-19 16:41:00,52.3,32.7,29.69,WSW,246,0.0,0.0,47,0.00,,---,0.02,VWS V14.01,2013-10-19 21:41:00,
2013-10-19 16:42:00,52.3,32.7,29.69,SW,226,0.0,0.0,47,0.00,,---,0.02,VWS V14.01,2013-10-19 21:42:00,
2013-10-19 16:44:00,52.2,33.1,29.70,WNW,288,2.0,2.0,48,0.00,,---,0.02,VWS V14.01,2013-10-19 21:44:00,
2013-10-19 16:46:00,52.0,31.9,29.70,NW,316,3.0,3.0,46,0.00,,---,0.02,VWS V14.01,2013-10-19 21:46:00,
2013-10-19 16:47:00,51.9,32.3,29.70,South,182,1.0,2.0,47,0.00,,---,0.02,VWS V14.01,2013-10-19 21:47:00,
2013-10-19 16:49:00,51.9,32.3,29.70,WSW,247,1.0,1.0,47,0.00,,---,0.02,VWS V14.01,2013-10-19 21:49:00,
2013-10-19 16:52:00,51.6,32.0,29.70,West,277,0.0,2.0,47,0.00,,---,0.02,VWS V14.01,2013-10-19 21:52:00,
2013-10-19 16:53:00,51.6,32.0,29.70,West,277,0.0,0.0,47,0.00,,---,0.02,VWS V14.01,2013-10-19 21:53:00,
2013-10-19 16:54:00,51.6,32.0,29.70,SW,224,1.0,6.0,47,0.00,,---,0.02,VWS V14.01,2013-10-19 21:54:00,
2013-10-19 16:58:00,51.1,32.1,29.70,WSW,238,0.0,0.0,48,0.00,,---,0.02,VWS V14.01,2013-10-19 21:58:00,
2013-10-19 16:59:00,51.1,32.1,29.70,WSW,238,0.0,0.0,48,0.00,,---,0.02,VWS V14.01,2013-10-19 21:59:00,
2013-10-19 17:01:00,51.0,32.5,29.70,WSW,238,0.0,0.0,49,0.00,,---,0.02,VWS V14.01,2013-10-19 22:01:00,
2013-10-19 17:02:00,50.8,32.3,29.70,WSW,238,0.0,1.0,49,0.00,,---,0.02,VWS V14.01,2013-10-19 22:02:00,
2013-10-19 17:04:00,50.7,32.8,29.70,WSW,237,0.0,0.0,50,0.00,,---,0.02,VWS V14.01,2013-10-19 22:04:00,
2013-10-19 17:05:00,50.7,32.8,29.70,WSW,237,0.0,0.0,50,0.00,,---,0.02,VWS V14.01,2013-10-19 22:05:00,
2013-10-19 17:07:00,50.5,33.1,29.70,WSW,238,1.0,1.0,51,0.00,,---,0.02,VWS V14.01,2013-10-19 22:07:00,
2013-10-19 17:10:00,50.2,32.3,29.70,WSW,242,5.0,6.0,50,0.00,,---,0.02,VWS V14.01,2013-10-19 22:10:00,
2013-10-19 17:11:00,50.2,31.8,29.70,WSW,255,1.0,5.0,49,0.00,,---,0.02,VWS V14.01,2013-10-19 22:11:00,
2013-10-19 17:12:00,50.1,32.2,29.70,WSW,254,0.0,3.0,50,0.00,,---,0.02,VWS V14.01,2013-10-19 22:12:00,
2013-10-19 17:14:00,50.1,32.2,29.70,SW,226,2.0,2.0,50,0.00,,---,0.02,VWS V14.01,2013-10-19 22:14:00,
2013-10-19 17:16:00,50.1,32.7,29.70,SW,226,0.0,0.0,51,0.00,,---,0.02,VWS V14.01,2013-10-19 22:16:00,
2013-10-19 17:17:00,50.1,32.7,29.70,SW,226,0.0,0.0,51,0.00,,---,0.02,VWS V14.01,2013-10-19 22:17:00,
2013-10-19 17:19:00,50.1,33.2,29.70,SSW,212,0.0,0.0,52,0.00,,---,0.02,VWS V14.01,2013-10-19 22:19:00,
2013-10-19 17:20:00,50.1,33.2,29.70,SSW,208,2.0,2.0,52,0.00,,---,0.02,VWS V14.01,2013-10-19 22:20:00,
2013-10-19 17:21:00,50.1,33.2,29.70,SSW,208,0.0,2.0,52,0.00,,---,0.02,VWS V14.01,2013-10-19 22:21:00,
2013-10-19 17:25:00,50.2,33.7,29.70,SW,214,0.0,1.0,53,0.00,,---,0.02,VWS V14.01,2013-10-19 22:25:00,
2013-10-19 17:26:00,50.2,33.7,29.70,SW,214,0.0,0.0,53,0.00,,---,0.02,VWS V14.01,2013-10-19 22:26:00,
2013-10-19 17:27:00,50.4,33.5,29.70,SW,215,1.0,2.0,52,0.00,,---,0.02,VWS V14.01,2013-10-19 22:27:00,
2013-10-19 17:31:00,50.4,33.0,29.70,WNW,283,3.0,4.0,51,0.00,,---,0.02,VWS V14.01,2013-10-19 22:31:00,
2013-10-19 17:32:00,50.4,32.5,29.70,SW,231,1.0,4.0,50,0.00,,---,0.02,VWS V14.01,2013-10-19 22:32:00,
2013-10-19 17:33:00,50.2,32.3,29.70,SW,231,0.0,1.0,50,0.00,,---,0.02,VWS V14.01,2013-10-19 22:33:00,
2013-10-19 17:35:00,50.2,32.8,29.70,West,274,0.0,3.0,51,0.00,,---,0.02,VWS V14.01,2013-10-19 22:35:00,
2013-10-19 17:38:00,50.2,33.3,29.70,WSW,257,0.0,0.0,52,0.00,,---,0.02,VWS V14.01,2013-10-19 22:38:00,
2013-10-19 17:39:00,50.1,33.2,29.70,SW,236,0.0,1.0,52,0.00,,---,0.02,VWS V14.01,2013-10-19 22:39:00,
2013-10-19 17:40:00,50.1,33.2,29.70,WSW,246,1.0,1.0,52,0.00,,---,0.02,VWS V14.01,2013-10-19 22:40:00,
2013-10-19 17:42:00,49.9,33.0,29.70,WSW,237,1.0,1.0,52,0.00,,---,0.02,VWS V14.01,2013-10-19 22:42:00,
2013-10-19 17:45:00,49.8,33.4,29.70,WSW,237,0.0,0.0,53,0.00,,---,0.02,VWS V14.01,2013-10-19 22:45:00,
2013-10-19 17:46:00,49.6,33.2,29.70,WSW,237,0.0,0.0,53,0.00,,---,0.02,VWS V14.01,2013-10-19 22:46:00,
2013-10-19 17:47:00,49.6,33.2,29.70,WSW,242,0.0,0.0,53,0.00,,---,0.02,VWS V14.01,2013-10-19 22:47:00,
2013-10-19 17:49:00,49.5,33.1,29.70,WSW,242,0.0,0.0,53,0.00,,---,0.02,VWS V14.01,2013-10-19 22:49:00,
2013-10-19 17:51:00,49.4,33.5,29.70,SW,231,2.0,3.0,54,0.00,,---,0.02,VWS V14.01,2013-10-19 22:51:00,
2013-10-19 17:52:00,49.4,33.5,29.70,SW,231,0.0,2.0,54,0.00,,---,0.02,VWS V14.01,2013-10-19 22:52:00,
2013-10-19 17:53:00,49.2,33.3,29.70,SW,231,0.0,0.0,54,0.00,,---,0.02,VWS V14.01,2013-10-19 22:53:00,
2013-10-19 17:55:00,49.1,33.2,29.70,SW,231,1.0,1.0,54,0.00,,---,0.02,VWS V14.01,2013-10-19 22:55:00,
2013-10-19 17:56:00,49.1,33.7,29.70,SW,231,0.0,0.0,55,0.00,,---,0.02,VWS V14.01,2013-10-19 22:56:00,
2013-10-19 17:57:00,48.9,33.5,29.70,SW,231,0.0,0.0,55,0.00,,---,0.02,VWS V14.01,2013-10-19 22:57:00,
2013-10-19 18:00:00,48.8,33.4,29.70,SW,231,0.0,1.0,55,0.00,,---,0.02,VWS V14.01,2013-10-19 23:00:00,
2013-10-19 18:04:00,48.5,33.5,29.70,SW,231,0.0,0.0,56,0.00,,---,0.02,VWS V14.01,2013-10-19 23:04:00,
2013-10-19 18:06:00,48.3,33.3,29.70,SW,231,0.0,0.0,56,0.00,,---,0.02,VWS V14.01,2013-10-19 23:06:00,
2013-10-19 18:07:00,48.3,33.3,29.70,SW,231,0.0,0.0,56,0.00,,---,0.02,VWS V14.01,2013-10-19 23:07:00,
2013-10-19 18:08:00,48.3,33.8,29.70,SW,231,0.0,0.0,57,0.00,,---,0.02,VWS V14.01,2013-10-19 23:08:00,
2013-10-19 18:10:00,48.2,33.7,29.70,SW,231,0.0,0.0,57,0.00,,---,0.02,VWS V14.01,2013-10-19 23:10:00,
2013-10-19 18:11:00,48.0,33.9,29.70,SW,231,0.0,0.0,58,0.00,,---,0.02,VWS V14.01,2013-10-19 23:11:00,
2013-10-19 18:12:00,48.0,33.9,29.70,SW,231,0.0,0.0,58,0.00,,---,0.02,VWS V14.01,2013-10-19 23:12:00,
2013-10-19 18:13:00,48.0,33.9,29.70,SW,231,0.0,0.0,58,0.00,,---,0.02,VWS V14.01,2013-10-19 23:13:00,
2013-10-19 18:15:00,47.9,33.8,29.70,SW,231,0.0,0.0,58,0.00,,---,0.02,VWS V14.01,2013-10-19 23:15:00,
2013-10-19 18:16:00,47.9,33.8,29.70,SW,231,0.0,0.0,58,0.00,,---,0.02,VWS V14.01,2013-10-19 23:16:00,
2013-10-19 18:17:00,47.9,33.8,29.70,SW,231,0.0,0.0,58,0.00,,---,0.02,VWS V14.01,2013-10-19 23:17:00,
2013-10-19 18:18:00,47.9,33.8,29.70,SW,231,0.0,0.0,58,0.00,,---,0.02,VWS V14.01,2013-10-19 23:18:00,
2013-10-19 18:20:00,47.9,33.8,29.70,SW,231,0.0,0.0,58,0.00,,---,0.02,VWS V14.01,2013-10-19 23:20:00,
2013-10-19 18:23:00,47.3,33.7,29.70,SW,231,0.0,0.0,59,0.00,,---,0.02,VWS V14.01,2013-10-19 23:23:00,
2013-10-19 18:24:00,47.1,33.5,29.70,WSW,242,0.0,2.0,59,0.00,,---,0.02,VWS V14.01,2013-10-19 23:24:00,
2013-10-19 18:26:00,47.1,33.9,29.70,WSW,242,0.0,0.0,60,0.00,,---,0.02,VWS V14.01,2013-10-19 23:26:00,
2013-10-19 18:28:00,47.0,33.8,29.70,WSW,242,0.0,0.0,60,0.00,,---,0.02,VWS V14.01,2013-10-19 23:28:00,
2013-10-19 18:29:00,47.0,33.8,29.72,WSW,242,0.0,0.0,60,0.00,,---,0.02,VWS V14.01,2013-10-19 23:29:00,
2013-10-19 18:30:00,47.0,33.8,29.72,WSW,242,0.0,0.0,60,0.00,,---,0.02,VWS V14.01,2013-10-19 23:30:00,
2013-10-19 18:32:00,46.8,33.7,29.72,WSW,242,0.0,0.0,60,0.00,,---,0.02,VWS V14.01,2013-10-19 23:32:00,
2013-10-19 18:34:00,46.8,33.7,29.72,WSW,242,0.0,0.0,60,0.00,,---,0.02,VWS V14.01,2013-10-19 23:34:00,
2013-10-19 18:35:00,46.8,33.7,29.72,WSW,242,0.0,0.0,60,0.00,,---,0.02,VWS V14.01,2013-10-19 23:35:00,
2013-10-19 18:36:00,46.7,34.0,29.72,WSW,242,0.0,0.0,61,0.00,,---,0.02,VWS V14.01,2013-10-19 23:36:00,
2013-10-19 18:38:00,46.7,34.0,29.72,WSW,242,0.0,2.0,61,0.00,,---,0.02,VWS V14.01,2013-10-19 23:38:00,
2013-10-19 18:39:00,46.8,34.1,29.72,WSW,242,0.0,0.0,61,0.00,,---,0.02,VWS V14.01,2013-10-19 23:39:00,
2013-10-19 18:41:00,46.8,33.7,29.72,WSW,241,0.0,0.0,60,0.00,,---,0.02,VWS V14.01,2013-10-19 23:41:00,
2013-10-19 18:42:00,46.8,33.7,29.72,WSW,241,0.0,0.0,60,0.00,,---,0.02,VWS V14.01,2013-10-19 23:42:00,
2013-10-19 18:43:00,47.0,33.8,29.72,WSW,240,0.0,1.0,60,0.00,,---,0.02,VWS V14.01,2013-10-19 23:43:00,
2013-10-19 18:45:00,47.0,33.8,29.72,WSW,241,0.0,0.0,60,0.00,,---,0.02,VWS V14.01,2013-10-19 23:45:00,
2013-10-19 18:46:00,47.0,33.8,29.72,SW,232,0.0,3.0,60,0.00,,---,0.02,VWS V14.01,2013-10-19 23:46:00,
2013-10-19 18:47:00,47.1,33.9,29.72,SW,235,0.0,0.0,60,0.00,,---,0.02,VWS V14.01,2013-10-19 23:47:00,
2013-10-19 18:48:00,47.1,33.9,29.72,SW,236,0.0,0.0,60,0.00,,---,0.02,VWS V14.01,2013-10-19 23:48:00,
2013-10-19 18:51:00,47.3,33.7,29.72,WNW,295,0.0,1.0,59,0.00,,---,0.02,VWS V14.01,2013-10-19 23:51:00,
2013-10-19 18:52:00,47.4,33.8,29.72,WNW,295,0.0,0.0,59,0.00,,---,0.02,VWS V14.01,2013-10-19 23:52:00,
2013-10-19 18:53:00,47.4,33.8,29.72,WNW,295,0.0,0.0,59,0.00,,---,0.02,VWS V14.01,2013-10-19 23:53:00,
2013-10-19 18:54:00,47.4,33.8,29.72,WNW,295,0.0,0.0,59,0.00,,---,0.02,VWS V14.01,2013-10-19 23:54:00,
2013-10-19 18:56:00,47.6,34.0,29.72,SW,217,0.0,1.0,59,0.00,,---,0.02,VWS V14.01,2013-10-19 23:56:00,
2013-10-19 18:57:00,47.6,34.0,29.72,SW,217,0.0,0.0,59,0.00,,---,0.02,VWS V14.01,2013-10-19 23:57:00,
2013-10-19 18:58:00,47.6,34.0,29.72,SW,227,0.0,1.0,59,0.00,,---,0.02,VWS V14.01,2013-10-19 23:58:00,
2013-10-19 18:59:00,47.7,34.1,29.72,SW,231,0.0,1.0,59,0.00,,---,0.02,VWS V14.01,2013-10-19 23:59:00,
2013-10-19 19:00:00,47.7,34.1,29.72,SW,231,0.0,0.0,59,0.00,,---,0.02,VWS V14.01,2013-10-20 00:00:00,
2013-10-19 19:02:00,47.7,34.1,29.72,SW,231,0.0,0.0,59,0.00,,---,0.02,VWS V14.01,2013-10-20 00:02:00,
2013-10-19 19:03:00,47.9,34.3,29.72,SW,232,1.0,2.0,59,0.00,,---,0.02,VWS V14.01,2013-10-20 00:03:00,
2013-10-19 19:04:00,47.9,34.3,29.72,SW,215,0.0,1.0,59,0.00,,---,0.02,VWS V14.01,2013-10-20 00:04:00,
2013-10-19 19:05:00,47.9,34.3,29.72,SW,215,0.0,0.0,59,0.00,,---,0.02,VWS V14.01,2013-10-20 00:05:00,
2013-10-19 19:06:00,47.9,34.3,29.72,SW,229,0.0,0.0,59,0.00,,---,0.02,VWS V14.01,2013-10-20 00:06:00,
2013-10-19 19:07:00,47.9,34.3,29.72,SW,229,0.0,1.0,59,0.00,,---,0.02,VWS V14.01,2013-10-20 00:07:00,
2013-10-19 19:09:00,48.0,34.4,29.72,West,277,0.0,0.0,59,0.00,,---,0.02,VWS V14.01,2013-10-20 00:09:00,
2013-10-19 19:11:00,48.0,34.4,29.72,SW,221,0.0,1.0,59,0.00,,---,0.02,VWS V14.01,2013-10-20 00:11:00,
2013-10-19 19:14:00,48.0,34.4,29.73,SW,223,0.0,0.0,59,0.00,,---,0.02,VWS V14.01,2013-10-20 00:14:00,
2013-10-19 19:17:00,48.0,34.4,29.73,SW,223,2.0,2.0,59,0.00,,---,0.02,VWS V14.01,2013-10-20 00:17:00,
2013-10-19 19:19:00,48.0,34.4,29.73,WSW,240,0.0,0.0,59,0.00,,---,0.02,VWS V14.01,2013-10-20 00:19:00,
2013-10-19 19:21:00,48.0,34.4,29.73,SW,234,0.0,1.0,59,0.00,,---,0.02,VWS V14.01,2013-10-20 00:21:00,
2013-10-19 19:22:00,48.0,34.4,29.73,SW,234,0.0,0.0,59,0.00,,---,0.02,VWS V14.01,2013-10-20 00:22:00,
2013-10-19 19:24:00,48.0,34.4,29.73,SW,234,0.0,0.0,59,0.00,,---,0.02,VWS V14.01,2013-10-20 00:24:00,
2013-10-19 19:26:00,48.2,34.6,29.73,SW,219,0.0,1.0,59,0.00,,---,0.02,VWS V14.01,2013-10-20 00:26:00,
2013-10-19 19:27:00,48.2,34.6,29.73,SW,219,0.0,0.0,59,0.00,,---,0.02,VWS V14.01,2013-10-20 00:27:00,
2013-10-19 19:28:00,48.2,34.6,29.73,SW,219,0.0,0.0,59,0.00,,---,0.02,VWS V14.01,2013-10-20 00:28:00,
2013-10-19 19:30:00,48.2,35.4,29.73,NW,319,0.0,0.0,61,0.00,,---,0.02,VWS V14.01,2013-10-20 00:30:00,
2013-10-19 19:32:00,48.2,35.0,29.73,WSW,253,0.0,1.0,60,0.00,,---,0.02,VWS V14.01,2013-10-20 00:32:00,
2013-10-19 19:33:00,48.2,35.0,29.73,WSW,253,0.0,0.0,60,0.00,,---,0.02,VWS V14.01,2013-10-20 00:33:00,
2013-10-19 19:34:00,48.2,35.0,29.73,WSW,252,0.0,0.0,60,0.00,,---,0.02,VWS V14.01,2013-10-20 00:34:00,
2013-10-19 19:35:00,48.2,35.0,29.73,WSW,250,1.0,1.0,60,0.00,,---,0.02,VWS V14.01,2013-10-20 00:35:00,
2013-10-19 19:37:00,48.2,35.0,29.73,WNW,283,2.0,2.0,60,0.00,,---,0.02,VWS V14.01,2013-10-20 00:37:00,
2013-10-19 19:38:00,48.2,35.0,29.73,West,271,1.0,2.0,60,0.00,,---,0.02,VWS V14.01,2013-10-20 00:38:00,
2013-10-19 19:40:00,48.3,35.5,29.73,West,271,0.0,0.0,61,0.00,,---,0.02,VWS V14.01,2013-10-20 00:40:00,
2013-10-19 19:43:00,48.3,35.1,29.73,SW,220,0.0,2.0,60,0.00,,---,0.02,VWS V14.01,2013-10-20 00:43:00,
2013-10-19 19:44:00,48.3,35.1,29.74,SW,220,0.0,0.0,60,0.00,,---,0.02,VWS V14.01,2013-10-20 00:44:00,
2013-10-19 19:46:00,48.3,34.7,29.74,WSW,248,0.0,0.0,59,0.00,,---,0.02,VWS V14.01,2013-10-20 00:46:00,
2013-10-19 19:48:00,48.5,34.8,29.74,North,351,1.0,2.0,59,0.00,,---,0.02,VWS V14.01,2013-10-20 00:48:00,
2013-10-19 19:50:00,48.6,35.4,29.74,WNW,285,3.0,5.0,60,0.00,,---,0.02,VWS V14.01,2013-10-20 00:50:00,
2013-10-19 19:51:00,48.6,34.9,29.74,WSW,252,1.0,3.0,59,0.00,,---,0.02,VWS V14.01,2013-10-20 00:51:00,
2013-10-19 19:53:00,48.6,34.9,29.74,WSW,252,0.0,0.0,59,0.00,,---,0.02,VWS V14.01,2013-10-20 00:53:00,
2013-10-19 19:55:00,48.6,35.4,29.74,WSW,252,0.0,0.0,60,0.00,,---,0.02,VWS V14.01,2013-10-20 00:55:00,
2013-10-19 19:56:00,48.6,35.8,29.74,WSW,252,0.0,0.0,61,0.00,,---,0.02,VWS V14.01,2013-10-20 00:56:00,
2013-10-19 19:57:00,48.6,35.8,29.74,WSW,252,0.0,0.0,61,0.00,,---,0.02,VWS V14.01,2013-10-20 00:57:00,
2013-10-19 19:58:00,48.6,36.2,29.74,WSW,252,0.0,0.0,62,0.00,,---,0.02,VWS V14.01,2013-10-20 00:58:00,
2013-10-19 20:00:00,48.6,36.2,29.75,ESE,117,0.0,0.0,62,0.00,,---,0.02,VWS V14.01,2013-10-20 01:00:00,
2013-10-19 20:01:00,48.5,36.1,29.75,SSE,156,0.0,0.0,62,0.00,,---,0.02,VWS V14.01,2013-10-20 01:01:00,
2013-10-19 20:02:00,48.5,36.1,29.75,SSE,156,0.0,0.0,62,0.00,,---,0.02,VWS V14.01,2013-10-20 01:02:00,
2013-10-19 20:03:00,48.5,36.5,29.75,SSE,156,0.0,0.0,63,0.00,,---,0.02,VWS V14.01,2013-10-20 01:03:00,
2013-10-19 20:07:00,48.3,36.3,29.75,SSE,156,0.0,0.0,63,0.00,,---,0.02,VWS V14.01,2013-10-20 01:07:00,
2013-10-19 20:08:00,48.3,36.3,29.75,SSE,156,0.0,0.0,63,0.00,,---,0.02,VWS V14.01,2013-10-20 01:08:00,
2013-10-19 20:09:00,48.2,36.6,29.75,SSE,156,0.0,0.0,64,0.00,,---,0.02,VWS V14.01,2013-10-20 01:09:00,
2013-10-19 20:10:00,48.2,36.6,29.75,SSE,156,0.0,0.0,64,0.00,,---,0.02,VWS V14.01,2013-10-20 01:10:00,
2013-10-19 20:13:00,48.0,36.8,29.75,SSE,156,0.0,0.0,65,0.00,,---,0.02,VWS V14.01,2013-10-20 01:13:00,
2013-10-19 20:15:00,47.9,36.7,29.75,SSE,156,0.0,0.0,65,0.00,,---,0.02,VWS V14.01,2013-10-20 01:15:00,
2013-10-19 20:17:00,47.9,37.1,29.75,SSE,156,0.0,0.0,66,0.00,,---,0.02,VWS V14.01,2013-10-20 01:17:00,
2013-10-19 20:20:00,47.7,36.9,29.75,SSE,156,0.0,0.0,66,0.00,,---,0.02,VWS V14.01,2013-10-20 01:20:00,
2013-10-19 20:21:00,47.6,37.2,29.75,SSE,156,0.0,0.0,67,0.00,,---,0.02,VWS V14.01,2013-10-20 01:21:00,
2013-10-19 20:22:00,47.6,37.2,29.75,SSE,156,0.0,0.0,67,0.00,,---,0.02,VWS V14.01,2013-10-20 01:22:00,
2013-10-19 20:23:00,47.6,37.2,29.75,North,4,0.0,1.0,67,0.00,,---,0.02,VWS V14.01,2013-10-20 01:23:00,
2013-10-19 20:25:00,47.4,37.4,29.75,North,4,0.0,0.0,68,0.00,,---,0.02,VWS V14.01,2013-10-20 01:25:00,
2013-10-19 20:27:00,47.4,37.0,29.75,North,2,1.0,1.0,67,0.00,,---,0.02,VWS V14.01,2013-10-20 01:27:00,
2013-10-19 20:29:00,47.3,37.3,29.75,SW,221,2.0,2.0,68,0.00,,---,0.02,VWS V14.01,2013-10-20 01:29:00,
2013-10-19 20:30:00,47.3,37.3,29.75,SW,221,0.0,0.0,68,0.00,,---,0.02,VWS V14.01,2013-10-20 01:30:00,
2013-10-19 20:31:00,47.3,37.3,29.75,NW,305,0.0,2.0,68,0.00,,---,0.02,VWS V14.01,2013-10-20 01:31:00,
2013-10-19 20:34:00,47.1,37.1,29.75,NW,305,0.0,0.0,68,0.00,,---,0.02,VWS V14.01,2013-10-20 01:34:00,
2013-10-19 20:35:00,47.1,37.5,29.75,NW,305,0.0,0.0,69,0.00,,---,0.02,VWS V14.01,2013-10-20 01:35:00,
2013-10-19 20:36:00,47.1,37.5,29.75,NW,305,0.0,0.0,69,0.00,,---,0.02,VWS V14.01,2013-10-20 01:36:00,
2013-10-19 20:38:00,47.1,37.8,29.75,SSW,192,0.0,1.0,70,0.00,,---,0.02,VWS V14.01,2013-10-20 01:38:00,
2013-10-19 20:39:00,47.1,37.8,29.75,South,191,0.0,0.0,70,0.00,,---,0.02,VWS V14.01,2013-10-20 01:39:00,
2013-10-19 20:40:00,47.0,37.7,29.75,South,191,0.0,0.0,70,0.00,,---,0.02,VWS V14.01,2013-10-20 01:40:00,
2013-10-19 20:43:00,47.0,38.1,29.75,WSW,243,0.0,2.0,71,0.00,,---,0.02,VWS V14.01,2013-10-20 01:43:00,
2013-10-19 20:44:00,46.8,37.9,29.75,WSW,243,0.0,0.0,71,0.00,,---,0.02,VWS V14.01,2013-10-20 01:44:00,
2013-10-19 20:45:00,46.8,37.9,29.75,WSW,243,0.0,0.0,71,0.00,,---,0.02,VWS V14.01,2013-10-20 01:45:00,
2013-10-19 20:46:00,46.8,37.9,29.75,WSW,243,0.0,0.0,71,0.00,,---,0.02,VWS V14.01,2013-10-20 01:46:00,
2013-10-19 20:47:00,46.8,37.9,29.75,WSW,243,0.0,0.0,71,0.00,,---,0.02,VWS V14.01,2013-10-20 01:47:00,
2013-10-19 20:50:00,46.7,38.2,29.75,WSW,243,0.0,0.0,72,0.00,,---,0.02,VWS V14.01,2013-10-20 01:50:00,
2013-10-19 20:51:00,46.7,38.5,29.75,WSW,243,0.0,0.0,73,0.00,,---,0.02,VWS V14.01,2013-10-20 01:51:00,
2013-10-19 20:52:00,46.7,38.5,29.75,WSW,243,0.0,0.0,73,0.00,,---,0.02,VWS V14.01,2013-10-20 01:52:00,
2013-10-19 20:53:00,46.5,38.3,29.75,WSW,243,0.0,0.0,73,0.00,,---,0.02,VWS V14.01,2013-10-20 01:53:00,
2013-10-19 20:56:00,46.5,38.3,29.75,WSW,243,0.0,0.0,73,0.00,,---,0.02,VWS V14.01,2013-10-20 01:56:00,
2013-10-19 20:58:00,46.4,38.6,29.75,WSW,243,0.0,0.0,74,0.00,,---,0.02,VWS V14.01,2013-10-20 01:58:00,
2013-10-19 20:59:00,46.4,38.6,29.75,WSW,243,0.0,1.0,74,0.00,,---,0.02,VWS V14.01,2013-10-20 01:59:00,
2013-10-19 21:00:00,46.4,38.2,29.75,WSW,243,0.0,0.0,73,0.00,,---,0.02,VWS V14.01,2013-10-20 02:00:00,
2013-10-19 21:01:00,46.2,38.0,29.75,WSW,243,0.0,0.0,73,0.00,,---,0.02,VWS V14.01,2013-10-20 02:01:00,
2013-10-19 21:05:00,46.2,38.4,29.75,WSW,243,0.0,0.0,74,0.00,,---,0.02,VWS V14.01,2013-10-20 02:05:00,
2013-10-19 21:06:00,46.1,38.3,29.75,WSW,243,0.0,0.0,74,0.00,,---,0.02,VWS V14.01,2013-10-20 02:06:00,
2013-10-19 21:07:00,46.1,38.3,29.75,SW,227,2.0,2.0,74,0.00,,---,0.02,VWS V14.01,2013-10-20 02:07:00,
2013-10-19 21:09:00,46.1,38.3,29.75,SW,227,0.0,0.0,74,0.00,,---,0.02,VWS V14.01,2013-10-20 02:09:00,
2013-10-19 21:11:00,46.0,38.2,29.75,SW,227,0.0,0.0,74,0.00,,---,0.02,VWS V14.01,2013-10-20 02:11:00,
2013-10-19 21:12:00,46.0,38.2,29.75,SW,227,0.0,0.0,74,0.00,,---,0.02,VWS V14.01,2013-10-20 02:12:00,
2013-10-19 21:14:00,46.0,38.2,29.74,SW,227,0.0,0.0,74,0.00,,---,0.02,VWS V14.01,2013-10-20 02:14:00,
2013-10-19 21:16:00,46.0,38.5,29.74,SW,227,0.0,0.0,75,0.00,,---,0.02,VWS V14.01,2013-10-20 02:16:00,
2013-10-19 21:17:00,45.8,38.3,29.74,SW,227,0.0,0.0,75,0.00,,---,0.02,VWS V14.01,2013-10-20 02:17:00,
2013-10-19 21:18:00,45.8,38.3,29.74,SW,227,0.0,0.0,75,0.00,,---,0.02,VWS V14.01,2013-10-20 02:18:00,
2013-10-19 21:19:00,45.8,38.3,29.74,SW,227,0.0,0.0,75,0.00,,---,0.02,VWS V14.01,2013-10-20 02:19:00,
2013-10-19 21:20:00,45.8,38.3,29.74,SW,227,0.0,0.0,75,0.00,,---,0.02,VWS V14.01,2013-10-20 02:20:00,
2013-10-19 21:23:00,45.7,38.2,29.74,SW,227,0.0,0.0,75,0.00,,---,0.02,VWS V14.01,2013-10-20 02:23:00,
2013-10-19 21:24:00,45.7,38.2,29.74,SW,227,0.0,0.0,75,0.00,,---,0.02,VWS V14.01,2013-10-20 02:24:00,
2013-10-19 21:25:00,45.7,38.2,29.74,SW,227,0.0,0.0,75,0.00,,---,0.02,VWS V14.01,2013-10-20 02:25:00,
2013-10-19 21:26:00,45.5,38.4,29.74,SW,227,0.0,0.0,76,0.00,,---,0.02,VWS V14.01,2013-10-20 02:26:00,
2013-10-19 21:28:00,45.5,38.4,29.74,SW,227,0.0,0.0,76,0.00,,---,0.02,VWS V14.01,2013-10-20 02:28:00,
2013-10-19 21:29:00,45.4,38.3,29.75,SW,227,0.0,0.0,76,0.00,,---,0.02,VWS V14.01,2013-10-20 02:29:00,
2013-10-19 21:31:00,45.4,38.3,29.75,SW,227,0.0,0.0,76,0.00,,---,0.02,VWS V14.01,2013-10-20 02:31:00,
2013-10-19 21:33:00,45.2,38.1,29.75,SW,227,0.0,0.0,76,0.00,,---,0.02,VWS V14.01,2013-10-20 02:33:00,
2013-10-19 21:35:00,45.2,38.1,29.75,SW,227,0.0,0.0,76,0.00,,---,0.02,VWS V14.01,2013-10-20 02:35:00,
2013-10-19 21:36:00,45.2,38.1,29.75,SW,227,0.0,0.0,76,0.00,,---,0.02,VWS V14.01,2013-10-20 02:36:00,
2013-10-19 21:39:00,45.1,38.3,29.75,SW,227,0.0,0.0,77,0.00,,---,0.02,VWS V14.01,2013-10-20 02:39:00,
2013-10-19 21:41:00,44.9,38.1,29.75,SW,227,0.0,0.0,77,0.00,,---,0.02,VWS V14.01,2013-10-20 02:41:00,
2013-10-19 21:42:00,44.9,38.1,29.75,SW,227,0.0,0.0,77,0.00,,---,0.02,VWS V14.01,2013-10-20 02:42:00,
2013-10-19 21:43:00,44.9,38.1,29.75,SW,227,0.0,0.0,77,0.00,,---,0.02,VWS V14.01,2013-10-20 02:43:00,
2013-10-19 21:44:00,44.8,38.0,29.75,SW,227,0.0,0.0,77,0.00,,---,0.02,VWS V14.01,2013-10-20 02:44:00,
2013-10-19 21:48:00,44.6,38.2,29.75,SW,227,0.0,0.0,78,0.00,,---,0.02,VWS V14.01,2013-10-20 02:48:00,
2013-10-19 21:49:00,44.6,38.2,29.75,SW,227,0.0,0.0,78,0.00,,---,0.02,VWS V14.01,2013-10-20 02:49:00,
2013-10-19 21:51:00,44.5,38.1,29.75,SW,227,0.0,0.0,78,0.00,,---,0.02,VWS V14.01,2013-10-20 02:51:00,
2013-10-19 21:53:00,44.3,38.2,29.75,SW,227,0.0,0.0,79,0.00,,---,0.02,VWS V14.01,2013-10-20 02:53:00,
2013-10-19 21:54:00,44.3,38.2,29.75,SW,227,0.0,0.0,79,0.00,,---,0.02,VWS V14.01,2013-10-20 02:54:00,
2013-10-19 21:55:00,44.2,38.1,29.75,SW,227,0.0,0.0,79,0.00,,---,0.02,VWS V14.01,2013-10-20 02:55:00,
2013-10-19 21:56:00,44.2,38.4,29.75,SW,227,0.0,0.0,80,0.00,,---,0.02,VWS V14.01,2013-10-20 02:56:00,
2013-10-19 21:59:00,43.9,38.1,29.75,SW,227,0.0,0.0,80,0.00,,---,0.02,VWS V14.01,2013-10-20 02:59:00,
2013-10-19 22:00:00,43.9,38.1,29.75,SW,227,0.0,0.0,80,0.00,,---,0.02,VWS V14.01,2013-10-20 03:00:00,
2013-10-19 22:01:00,43.8,38.0,29.75,SW,227,0.0,0.0,80,0.00,,---,0.02,VWS V14.01,2013-10-20 03:01:00,
2013-10-19 22:02:00,43.8,38.0,29.75,SW,227,0.0,0.0,80,0.00,,---,0.02,VWS V14.01,2013-10-20 03:02:00,
2013-10-19 22:05:00,43.6,38.2,29.75,SW,227,0.0,0.0,81,0.00,,---,0.02,VWS V14.01,2013-10-20 03:05:00,
2013-10-19 22:07:00,43.6,38.2,29.75,SW,227,0.0,0.0,81,0.00,,---,0.02,VWS V14.01,2013-10-20 03:07:00,
2013-10-19 22:08:00,43.5,38.1,29.75,SW,227,0.0,0.0,81,0.00,,---,0.02,VWS V14.01,2013-10-20 03:08:00,
2013-10-19 22:09:00,43.5,38.1,29.75,SW,227,0.0,0.0,81,0.00,,---,0.02,VWS V14.01,2013-10-20 03:09:00,
2013-10-19 22:12:00,43.5,38.1,29.75,SW,227,0.0,0.0,81,0.00,,---,0.02,VWS V14.01,2013-10-20 03:12:00,
2013-10-19 22:13:00,43.3,37.9,29.75,SW,227,0.0,0.0,81,0.00,,---,0.02,VWS V14.01,2013-10-20 03:13:00,
2013-10-19 22:14:00,43.3,37.9,29.74,SW,227,0.0,0.0,81,0.00,,---,0.02,VWS V14.01,2013-10-20 03:14:00,
2013-10-19 22:15:00,43.3,37.9,29.74,SW,227,0.0,0.0,81,0.00,,---,0.02,VWS V14.01,2013-10-20 03:15:00,
2013-10-19 22:16:00,43.3,37.9,29.74,SW,227,0.0,0.0,81,0.00,,---,0.02,VWS V14.01,2013-10-20 03:16:00,
2013-10-19 22:20:00,43.2,37.8,29.74,SW,227,0.0,0.0,81,0.00,,---,0.02,VWS V14.01,2013-10-20 03:20:00,
2013-10-19 22:22:00,43.2,37.8,29.74,SW,227,0.0,0.0,81,0.00,,---,0.02,VWS V14.01,2013-10-20 03:22:00,
2013-10-19 22:24:00,43.2,38.1,29.74,SW,227,0.0,0.0,82,0.00,,---,0.02,VWS V14.01,2013-10-20 03:24:00,
2013-10-19 22:25:00,43.1,38.0,29.74,SW,227,0.0,0.0,82,0.00,,---,0.02,VWS V14.01,2013-10-20 03:25:00,
2013-10-19 22:26:00,43.1,38.0,29.74,SW,227,0.0,0.0,82,0.00,,---,0.02,VWS V14.01,2013-10-20 03:26:00,
2013-10-19 22:27:00,43.1,38.0,29.74,WSW,238,1.0,2.0,82,0.00,,---,0.02,VWS V14.01,2013-10-20 03:27:00,
2013-10-19 22:30:00,43.1,38.0,29.74,ENE,70,0.0,0.0,82,0.00,,---,0.02,VWS V14.01,2013-10-20 03:30:00,
2013-10-19 22:31:00,43.1,38.0,29.74,ENE,70,0.0,0.0,82,0.00,,---,0.02,VWS V14.01,2013-10-20 03:31:00,
2013-10-19 22:32:00,43.2,38.1,29.74,ENE,70,0.0,0.0,82,0.00,,---,0.02,VWS V14.01,2013-10-20 03:32:00,
2013-10-19 22:33:00,43.2,37.8,29.74,West,264,1.0,2.0,81,0.00,,---,0.02,VWS V14.01,2013-10-20 03:33:00,
2013-10-19 22:35:00,43.2,37.8,29.74,West,265,1.0,1.0,81,0.00,,---,0.02,VWS V14.01,2013-10-20 03:35:00,
2013-10-19 22:38:00,43.3,37.9,29.74,West,264,0.0,0.0,81,0.00,,---,0.02,VWS V14.01,2013-10-20 03:38:00,
2013-10-19 22:40:00,43.3,37.6,29.74,West,264,0.0,0.0,80,0.00,,---,0.02,VWS V14.01,2013-10-20 03:40:00,
2013-10-19 22:41:00,43.3,37.6,29.74,West,264,0.0,0.0,80,0.00,,---,0.02,VWS V14.01,2013-10-20 03:41:00,
2013-10-19 22:43:00,43.5,37.8,29.74,SE,131,0.0,0.0,80,0.00,,---,0.02,VWS V14.01,2013-10-20 03:43:00,
2013-10-19 22:44:00,43.5,37.8,29.74,SE,131,0.0,0.0,80,0.00,,---,0.02,VWS V14.01,2013-10-20 03:44:00,
2013-10-19 22:45:00,43.6,37.8,29.74,South,173,1.0,1.0,80,0.00,,---,0.02,VWS V14.01,2013-10-20 03:45:00,
2013-10-19 22:46:00,43.6,37.5,29.74,South,173,0.0,0.0,79,0.00,,---,0.02,VWS V14.01,2013-10-20 03:46:00,
2013-10-19 22:49:00,43.8,37.7,29.74,South,174,0.0,0.0,79,0.00,,---,0.02,VWS V14.01,2013-10-20 03:49:00,
2013-10-19 22:50:00,43.8,37.4,29.74,SSW,196,0.0,0.0,78,0.00,,---,0.02,VWS V14.01,2013-10-20 03:50:00,
2013-10-19 22:51:00,43.9,37.5,29.74,WSW,252,2.0,4.0,78,0.00,,---,0.02,VWS V14.01,2013-10-20 03:51:00,
2013-10-19 22:52:00,43.9,37.2,29.74,WSW,252,0.0,2.0,77,0.00,,---,0.02,VWS V14.01,2013-10-20 03:52:00,
2013-10-19 22:55:00,44.2,37.5,29.74,SSW,205,2.0,2.0,77,0.00,,---,0.02,VWS V14.01,2013-10-20 03:55:00,
2013-10-19 22:56:00,44.2,37.5,29.74,SW,221,2.0,2.0,77,0.00,,---,0.02,VWS V14.01,2013-10-20 03:56:00,
2013-10-19 22:58:00,44.3,37.2,29.74,SSW,201,0.0,0.0,76,0.00,,---,0.02,VWS V14.01,2013-10-20 03:58:00,
2013-10-19 23:01:00,44.5,37.1,29.74,SSW,208,0.0,0.0,75,0.00,,---,0.02,VWS V14.01,2013-10-20 04:01:00,
2013-10-19 23:02:00,44.5,37.1,29.74,SSW,208,0.0,0.0,75,0.00,,---,0.02,VWS V14.01,2013-10-20 04:02:00,
2013-10-19 23:03:00,44.6,37.2,29.74,SSW,211,0.0,0.0,75,0.00,,---,0.02,VWS V14.01,2013-10-20 04:03:00,
2013-10-19 23:06:00,44.6,36.8,29.74,SSW,194,0.0,1.0,74,0.00,,---,0.02,VWS V14.01,2013-10-20 04:06:00,
2013-10-19 23:07:00,44.6,36.8,29.74,WSW,241,0.0,6.0,74,0.00,,---,0.02,VWS V14.01,2013-10-20 04:07:00,
2013-10-19 23:08:00,44.6,36.8,29.74,South,191,0.0,0.0,74,0.00,,---,0.02,VWS V14.01,2013-10-20 04:08:00,
2013-10-19 23:10:00,44.8,37.0,29.74,SE,126,2.0,2.0,74,0.00,,---,0.02,VWS V14.01,2013-10-20 04:10:00,
2013-10-19 23:12:00,44.8,37.0,29.74,WSW,250,0.0,2.0,74,0.00,,---,0.02,VWS V14.01,2013-10-20 04:12:00,
2013-10-19 23:13:00,44.9,36.8,29.74,WSW,250,0.0,0.0,73,0.00,,---,0.02,VWS V14.01,2013-10-20 04:13:00,
2013-10-19 23:15:00,44.9,36.8,29.73,SSW,208,0.0,2.0,73,0.00,,---,0.02,VWS V14.01,2013-10-20 04:15:00,
2013-10-19 23:17:00,44.9,36.8,29.73,East,94,1.0,1.0,73,0.00,,---,0.02,VWS V14.01,2013-10-20 04:17:00,
2013-10-19 23:18:00,44.9,36.8,29.73,South,169,0.0,3.0,73,0.00,,---,0.02,VWS V14.01,2013-10-20 04:18:00,
2013-10-19 23:20:00,45.1,37.0,29.73,WSW,253,0.0,4.0,73,0.00,,---,0.02,VWS V14.01,2013-10-20 04:20:00,
2013-10-19 23:21:00,45.1,37.0,29.73,WSW,253,0.0,0.0,73,0.00,,---,0.02,VWS V14.01,2013-10-20 04:21:00,
2013-10-19 23:23:00,45.1,37.0,29.73,WSW,253,0.0,1.0,73,0.00,,---,0.02,VWS V14.01,2013-10-20 04:23:00,
2013-10-19 23:25:00,45.1,37.0,29.73,South,187,2.0,2.0,73,0.00,,---,0.02,VWS V14.01,2013-10-20 04:25:00,
2013-10-19 23:26:00,45.1,37.0,29.73,WSW,250,0.0,2.0,73,0.00,,---,0.02,VWS V14.01,2013-10-20 04:26:00,
2013-10-19 23:27:00,45.2,37.1,29.73,WNW,282,0.0,1.0,73,0.00,,---,0.02,VWS V14.01,2013-10-20 04:27:00,
2013-10-19 23:30:00,45.2,37.1,29.73,South,171,0.0,0.0,73,0.00,,---,0.02,VWS V14.01,2013-10-20 04:30:00,
2013-10-19 23:31:00,45.2,37.1,29.73,South,171,0.0,0.0,73,0.00,,---,0.02,VWS V14.01,2013-10-20 04:31:00,
2013-10-19 23:32:00,45.2,37.1,29.73,South,181,1.0,1.0,73,0.00,,---,0.02,VWS V14.01,2013-10-20 04:32:00,
2013-10-19 23:33:00,45.2,37.1,29.73,WSW,253,0.0,3.0,73,0.00,,---,0.02,VWS V14.01,2013-10-20 04:33:00,
2013-10-19 23:37:00,45.4,37.3,29.73,WSW,237,0.0,5.0,73,0.00,,---,0.02,VWS V14.01,2013-10-20 04:37:00,
2013-10-19 23:38:00,45.4,36.9,29.73,SW,224,0.0,2.0,72,0.00,,---,0.02,VWS V14.01,2013-10-20 04:38:00,
2013-10-19 23:40:00,45.5,37.0,29.73,West,276,0.0,2.0,72,0.00,,---,0.02,VWS V14.01,2013-10-20 04:40:00,
2013-10-19 23:42:00,45.5,37.0,29.73,West,266,0.0,1.0,72,0.00,,---,0.02,VWS V14.01,2013-10-20 04:42:00,
2013-10-19 23:43:00,45.5,37.0,29.73,West,261,0.0,1.0,72,0.00,,---,0.02,VWS V14.01,2013-10-20 04:43:00,
2013-10-19 23:45:00,45.5,37.4,29.73,West,261,0.0,0.0,73,0.00,,---,0.02,VWS V14.01,2013-10-20 04:45:00,
2013-10-19 23:46:00,45.7,37.5,29.73,West,261,0.0,0.0,73,0.00,,---,0.02,VWS V14.01,2013-10-20 04:46:00,
2013-10-19 23:48:00,45.7,37.2,29.73,West,261,0.0,0.0,72,0.00,,---,0.02,VWS V14.01,2013-10-20 04:48:00,
2013-10-19 23:51:00,45.7,37.5,29.73,West,261,0.0,0.0,73,0.00,,---,0.02,VWS V14.01,2013-10-20 04:51:00,
2013-10-19 23:52:00,45.7,37.5,29.73,West,261,0.0,0.0,73,0.00,,---,0.02,VWS V14.01,2013-10-20 04:52:00,
2013-10-19 23:54:00,45.7,37.5,29.73,SW,233,0.0,3.0,73,0.00,,---,0.02,VWS V14.01,2013-10-20 04:54:00,
2013-10-19 23:57:00,45.7,37.2,29.73,SSW,205,0.0,4.0,72,0.00,,---,0.02,VWS V14.01,2013-10-20 04:57:00,
2013-10-19 23:59:00,45.8,37.3,29.73,SSW,210,0.0,0.0,72,0.00,,---,0.02,VWS V14.01,2013-10-20 04:59:00,